[{"header": {"dx": 0.06612293990616946, "dy": 0.0552356325346848, "nx": 98, "ny": 59, "la1": 35.046912555036876, "la2": 31.78801023549047, "lo1": -121.43107172385933, "lo2": -114.95102361305473, "refTime": "2026041809", "parameterCategory": 1, "parameterNumber": 2}, "data": [10.87, 10.87, 10.87, 10.61, 10.21, 10.05, 9.66, 9.09, 9.12, 8.46, 8.58, 6.9, 0.0, 0.0, 12.07, 11.62, -8.22, -7.9, -8.22, -10.41, -9.17, -9.17, 11.62, 11.18, 11.18, 11.62, 12.07, 12.52, 10.8, 8.53, 8.85, 9.17, 8.85, 7.9, 9.75, 9.83, 9.11, 8.4, 8.4, 8.55, 9.54, 11.18, 11.62, 12.27, 13.99, 16.09, 19.04, 20.58, 15.38, 11.53, 13.88, 6.6, 9.12, 11.06, 11.06, 9.77, 10.02, 12.02, 12.02, 13.02, 13.99, 7.0, -0.0, 4.81, 8.43, 13.02, 14.39, 15.27, 15.47, 15.07, 15.27, 15.18, 15.49, 15.65, 15.65, 15.43, 14.55, 14.22, 14.75, 14.75, 14.3, 9.48, -0.0, 8.85, 12.07, 11.62, 10.8, 2.71, 0.0, 0.0, 0.0, 0.0, 0.0, 0.0, 0.0, 2.02, 3.68, 5.11, 10.87, 10.87, 10.87, 10.98, 10.21, 10.32, 9.66, 9.25, 9.27, 8.68, 8.51, 8.85, 7.44, 5.6, 0.0, 12.07, 0.0, -5.4, -6.7, -6.97, -7.44, -9.17, 0.0, 12.96, 10.73, 11.18, 11.62, 12.07, 10.04, 5.6, 6.4, 6.2, -0.0, -0.0, 7.2, 8.94, 8.05, 8.77, 8.72, 9.55, 11.62, 11.99, 12.04, 12.65, 14.88, 17.14, 19.45, 15.45, 10.94, 14.31, 8.18, 9.12, 10.75, 11.87, 9.49, 8.68, 10.02, 11.68, 12.73, 13.58, 13.99, 12.16, 6.8, 6.8, 8.43, 11.06, 12.87, 13.8, 15.27, 14.79, 15.49, 15.07, 15.93, 14.99, 15.2, 14.47, 13.99, 14.22, 14.75, 14.75, 14.3, 9.48, -0.0, 8.85, 12.07, 11.62, 10.8, 2.71, 0.0, 0.0, 0.0, 0.0, 0.0, 0.0, 0.0, 2.02, 3.68, 5.11, 10.87, 10.87, 11.25, 10.98, 10.47, 10.59, 9.54, 9.52, 8.83, 8.85, 8.2, 7.19, 8.31, 7.19, 10.4, 11.62, 11.62, 0.0, -5.4, -7.19, -5.98, -5.6, -3.04, 0.0, 9.8, 10.73, 10.73, 10.18, 7.9, -0.0, -0.0, -15.2, -14.3, 11.18, 8.49, 9.39, 8.94, 8.94, 9.7, 10.79, 10.41, 11.64, 13.29, 15.22, 16.48, 15.82, 13.49, 11.37, 14.75, 10.75, 9.12, 10.75, 11.87, 9.49, 8.18, 8.43, 11.68, 12.73, 12.73, 13.99, 13.58, 10.75, 7.82, 6.8, 7.82, 9.77, 11.06, 13.02, 13.02, 13.97, 14.39, 14.39, 15.18, 14.99, 14.75, 14.75, 15.2, 14.84, 14.3, 14.75, 14.3, 13.41, 12.96, 12.07, 11.62, 11.62, 7.9, 0.0, 0.0, 0.0, 0.0, 0.0, 0.0, 0.0, 0.0, 0.0, 1.83, 3.44, 10.35, 10.35, 10.73, 10.47, 10.47, 10.59, 9.8, 9.92, 9.25, 8.99, 7.93, 7.95, 8.58, 7.51, 10.04, 10.4, 10.4, 8.53, 0.0, -5.4, -6.71, -5.0, -5.0, -4.15, 0.0, 0.0, 10.28, 8.8, 8.8, -0.0, -12.07, -9.8, -12.52, -11.06, 0.0, 10.18, 9.97, 10.41, 10.87, 11.75, 12.36, 13.59, 14.55, 12.96, 12.0, 12.11, 13.32, 14.3, 13.7, 12.65, 12.27, 13.03, 10.43, 9.22, 8.18, 9.44, 11.68, 12.73, 13.99, 13.99, 13.97, 9.49, 6.6, 5.81, 7.32, 8.83, 11.06, 11.06, 12.33, 12.64, 13.59, 13.68, 14.84, 14.31, 14.3, 13.86, 14.47, 15.2, 15.2, 13.72, 13.15, 13.41, 12.96, 8.22, 11.18, 11.62, 8.53, 0.0, 1.84, 4.3, 2.53, 0.0, 0.0, 0.0, 0.0, 0.0, 0.0, 2.06, 10.35, 10.73, 10.73, 10.47, 10.47, 10.86, 10.05, 10.19, 9.25, 8.83, 8.4, 8.15, 7.36, 7.78, 8.53, 8.53, 8.22, 10.04, 3.68, -4.48, -9.17, -8.85, -9.67, -9.67, -7.59, -8.53, 12.52, 12.07, 11.18, 7.27, 10.73, -6.2, -6.45, -5.6, 0.0, 6.4, 9.12, 9.8, 11.38, 10.89, 11.36, 11.36, 10.73, 12.74, 13.72, 13.86, 14.3, 14.19, 14.18, 14.42, 12.65, 12.27, 10.12, 9.22, 10.43, 11.33, 13.2, 13.58, 13.27, 13.89, 13.56, 8.58, 3.93, 5.18, 6.6, 8.77, 12.01, 11.7, 11.93, 14.22, 15.74, 16.6, 17.02, 16.54, 15.04, 12.96, 13.59, 13.57, 13.79, 13.28, 12.3, 11.6, 10.8, 5.0, 0.0, 5.2, 10.04, 6.97, 7.0, 4.91, 4.79, 2.57, 0.0, 0.0, -2.13, -2.2, 0.0, 2.06, 10.35, 10.73, 10.73, 10.47, 10.47, 10.86, 10.05, 10.19, 9.12, 8.68, 8.65, 8.41, 8.94, 7.78, 8.85, 7.24, 7.24, 8.53, 5.4, -1.98, -7.26, -7.54, -10.73, -11.99, -10.41, -8.53, -6.7, -3.82, 0.0, 0.0, 9.83, 0.0, -2.02, -2.33, 0.0, 1.38, 4.24, 7.69, 10.17, 8.2, 6.44, 8.94, 10.82, 13.75, 13.96, 14.68, 14.75, 14.3, 13.75, 13.57, 12.87, 11.88, 9.8, 10.12, 11.52, 12.27, 12.81, 12.27, 13.59, 14.13, 12.74, 6.0, 2.09, 3.69, 7.2, 9.0, 12.33, 12.71, 12.01, 16.74, 20.51, 19.08, 17.39, 17.81, 17.89, 16.41, 13.41, 12.04, 12.96, 12.96, 10.8, 3.68, 5.2, 5.2, 5.2, 5.98, 8.66, 10.61, 8.4, 4.91, 2.28, 2.57, 2.57, -2.54, -7.78, -6.0, 0.0, 3.96, 10.73, 10.73, 10.73, 10.47, 10.47, 10.86, 10.05, 10.05, 9.37, 9.25, 8.83, 7.69, 8.94, 9.17, 9.48, 6.45, 5.4, 7.51, 6.44, 1.98, -5.4, -7.44, -8.05, -8.3, -7.51, -6.97, -5.2, -2.37, -3.04, -3.39, -11.18, 9.83, 0.0, 0.0, 0.0, 0.0, 1.25, 7.44, 8.22, 5.98, 4.65, 5.8, 6.4, 10.75, 13.99, 15.2, 15.27, 13.59, 12.74, 13.67, 14.03, 12.87, 11.17, 11.52, 12.27, 11.88, 12.79, 12.79, 13.15, 13.15, 11.99, 6.0, 2.98, 2.65, 5.23, 9.17, 13.82, 14.79, 14.84, 17.64, 20.56, 19.67, 16.99, 16.54, 16.99, 16.99, 15.2, 13.41, 13.15, 13.28, 12.07, 7.78, 5.15, 4.52, 6.8, 7.6, 10.19, 11.16, 8.6, 4.91, 1.83, 1.93, 0.0, -9.48, -12.72, 0.0, 3.04, 4.81, 10.47, 10.47, 10.47, 10.47, 10.47, 10.86, 10.05, 9.8, 9.37, 9.25, 8.83, 7.26, 7.93, 8.05, 9.8, 8.53, 7.51, 9.48, 9.17, 10.01, 12.14, 11.2, 0.0, -6.88, -6.73, -3.82, -3.82, -3.96, -5.98, -7.9, -7.9, -5.2, 0.0, 2.6, 2.71, 1.11, 1.11, 3.53, 7.82, 8.22, 10.0, 8.53, 4.24, 7.93, 14.75, -0.0, 5.81, 12.36, 12.81, 13.57, 12.27, 11.5, 10.82, 10.82, 10.82, 10.82, 11.53, 12.39, 12.56, 12.58, 11.87, 7.44, -0.0, 3.79, 3.9, 10.19, 15.61, 15.53, 14.75, 15.65, 17.88, 18.33, 15.97, 15.27, 14.84, 14.47, 14.3, 12.89, 12.46, 14.22, 15.65, 12.27, 7.32, 6.35, 6.47, 8.14, 11.41, 12.29, 14.66, 8.51, 2.0, -2.0, -6.9, -13.15, -13.41, 8.85, 8.53, 6.67, 10.47, 10.47, 10.47, 10.47, 10.47, 10.86, 10.05, 9.8, 9.37, 9.12, 8.43, 6.52, 7.0, 6.0, 6.0, 7.78, 6.9, 8.38, 9.17, 11.2, 12.52, 12.52, 12.96, 8.31, -4.24, -4.65, -3.65, -6.7, -9.42, -6.44, -4.32, 0.0, 0.0, 1.98, 3.07, 2.82, 1.76, 2.1, 3.68, 11.18, -0.0, -0.0, -0.0, -9.48, -0.0, -0.0, 5.09, 14.13, 12.57, 11.87, 11.8, 9.17, 10.47, 11.53, 11.53, 11.53, 12.03, 11.6, 11.72, 11.72, 12.04, 12.65, 4.81, -0.0, 5.09, 12.01, 16.76, 15.97, 14.75, 14.31, 15.61, 15.9, 16.15, 14.99, 13.99, 13.75, 13.86, 12.96, 13.86, 15.2, 16.54, 14.31, 8.94, 6.6, 5.98, 7.6, 8.65, 16.05, 15.61, 13.59, 0.0, -5.8, -9.17, -11.16, 0.0, 11.87, 9.66, 8.53, 10.21, 10.47, 10.47, 10.47, 10.47, 10.86, 10.05, 9.8, 9.66, 9.12, 8.86, 8.06, 7.49, 5.48, 5.81, 4.24, 3.98, 3.98, 3.81, 4.1, 3.04, 5.6, 10.37, 10.73, 2.63, -2.37, -5.9, -8.22, -8.38, -3.82, 0.0, 0.0, 0.0, 0.0, 0.0, 2.28, 4.8, 4.0, -11.62, -0.0, -0.0, 12.52, -0.0, -0.0, -0.0, -0.0, 6.0, 10.12, 11.06, 8.05, 7.59, 10.43, 11.9, 11.53, 12.03, 11.64, 12.39, 12.14, 11.87, 12.22, 14.64, 15.36, 12.33, 8.93, 8.93, 12.33, 16.44, 15.27, 13.59, 13.57, 13.19, 14.38, 15.27, 15.41, 15.27, 13.32, 12.45, 11.87, 12.3, 14.51, 16.93, 16.54, 15.69, 9.77, 5.46, 7.44, 8.66, 14.3, 10.12, 0.0, -4.81, -6.44, -6.44, -5.8, 0.0, 6.94, 9.17, 8.85, 10.21, 10.21, 10.47, 10.47, 9.92, 10.31, 10.05, 9.54, 9.92, 9.12, 8.86, 8.61, 9.49, 7.93, 7.6, 5.31, 5.48, 3.1, 2.3, 1.47, 1.04, 1.2, 2.64, 4.39, 0.0, -5.95, -8.55, -8.18, -4.6, -2.45, 0.0, 0.0, -4.4, 0.0, 0.0, 2.82, 6.45, 11.62, -11.62, 12.52, 0.0, 12.52, 12.52, -0.0, -0.0, -0.0, -0.0, 3.04, 4.1, 3.25, 6.6, 12.87, 13.8, 14.39, 14.79, 14.79, 15.69, 13.53, 11.12, 13.41, 17.26, 15.33, 9.92, 5.98, 5.09, 11.17, 16.69, 15.99, 14.42, 12.96, 12.39, 12.27, 14.39, 14.79, 14.61, 12.89, 10.4, 9.42, 11.9, 13.59, 15.53, 17.2, 16.09, 16.12, 11.38, 10.43, 13.03, 14.9, 14.3, 0.0, -3.96, -2.06, -2.06, -2.45, 0.0, 3.47, 6.2, 6.9, 10.21, 10.21, 10.47, 10.47, 10.31, 10.31, 10.05, 9.54, 9.92, 9.92, 9.66, 9.39, 9.39, 9.77, 10.27, 9.92, 8.1, 6.94, 5.67, 3.71, 1.67, 0.98, 0.0, 0.0, -4.24, -11.87, -12.07, -7.89, -10.73, -8.58, -8.94, -10.73, -9.6, -9.97, -9.2, -4.8, -4.8, -11.62, -10.4, -8.53, 12.52, -0.0, -0.0, -0.0, -2.1, -2.02, -2.93, -0.0, 5.8, 9.8, 14.3, 16.54, 18.78, 20.12, 19.03, 19.07, 19.99, 18.78, 12.07, 13.86, 15.99, 9.43, 5.51, 2.65, 3.16, 13.59, 18.19, 19.33, 18.84, 16.82, 14.55, 12.39, 13.99, 14.9, 12.71, 11.18, 10.79, 11.8, 11.88, 12.52, 13.1, 15.07, 16.88, 17.88, 18.78, 18.85, 16.54, 13.59, 13.19, 7.69, 0.0, 0.0, 0.0, -2.82, 0.0, 0.0, 2.89, 2.35, 10.21, 10.21, 10.21, 9.92, 10.31, 10.31, 10.05, 9.8, 9.54, 9.66, 9.66, 9.39, 9.39, 10.54, 11.25, 12.19, 12.11, 11.93, 10.73, 9.8, 10.12, 9.6, 6.8, 0.0, -6.4, -13.44, -13.28, -12.42, -11.71, -9.83, -11.06, -11.18, -10.96, -10.38, -10.84, -10.73, -10.73, -11.18, -11.18, -10.4, -3.68, -0.0, -2.19, -2.39, -2.49, -2.6, -3.68, -5.4, 12.96, 6.0, 3.04, 6.0, 7.36, 9.73, 12.01, 14.66, 19.52, 22.8, 15.93, 12.07, -0.0, 2.72, -0.0, -0.0, 5.8, 16.74, 20.75, 21.74, 22.6, 24.07, 22.35, 21.01, 14.03, 11.4, 9.7, 11.18, 13.99, 14.39, 13.97, 13.46, 13.39, 12.92, 14.39, 14.79, 16.99, 18.78, 18.66, 14.88, 12.57, 12.27, 8.31, 5.2, 3.53, 0.0, 0.0, 0.0, 0.0, 0.0, 10.21, 10.21, 10.47, 9.92, 10.31, 10.31, 10.05, 9.8, 9.8, 9.54, 9.66, 9.39, 9.87, 10.15, 10.83, 12.33, 13.31, 13.97, 13.71, 13.58, 13.97, 14.61, 14.99, 15.2, 15.65, 14.75, 0.0, -14.75, -13.77, -12.91, -10.73, -10.73, -11.18, -10.28, -9.97, -10.18, -10.28, -10.28, -9.2, -7.59, -3.39, -2.49, -3.39, -2.49, -2.39, -2.49, -2.97, -7.9, 11.62, 0.0, 3.04, 2.37, 3.82, 4.48, 4.65, 3.96, 3.79, 17.19, 20.82, -0.0, -7.69, -4.95, -0.0, -0.0, 16.54, 11.7, 17.43, 18.78, 21.46, 22.12, 21.19, 21.68, 18.33, 9.55, 10.68, 13.56, 15.69, 16.54, 15.19, 15.19, 13.59, 11.7, 12.52, 12.16, 14.38, 14.79, 15.99, 15.25, 13.61, 14.18, 12.27, 10.4, 10.79, 12.14, 13.01, 11.99, 5.8, 0.0, 10.21, 10.21, 9.92, 9.92, 10.31, 10.57, 10.31, 10.05, 9.8, 9.54, 9.66, 9.87, 10.15, 10.15, 10.83, 11.86, 12.33, 13.71, 14.67, 14.99, 15.15, 15.36, 15.41, 15.53, 15.62, 15.61, 15.14, 14.6, 14.3, -13.86, -12.52, -10.18, -11.18, -10.28, -9.2, -7.27, -4.8, -4.4, -7.9, -3.11, -2.49, -0.0, -0.0, -3.11, -3.11, -3.11, -3.11, -4.6, -7.59, 11.18, 5.2, 6.2, 7.59, 9.39, 9.83, 7.59, 2.82, 7.69, 16.39, 12.33, -5.8, -9.17, -6.2, -0.0, 0.0, 0.0, 4.01, 9.42, 11.38, 17.99, 11.41, 17.17, 20.16, 12.27, 10.47, 12.92, 13.95, 15.33, 15.19, 16.12, 16.19, 14.57, 12.73, 10.91, 9.17, 10.75, 11.87, 12.57, 13.8, 13.23, 16.12, 12.72, 11.45, 12.27, 13.41, 12.3, 3.14, 3.14, 9.67, 9.67, 9.92, 9.92, 10.31, 10.57, 10.31, 10.31, 10.32, 10.05, 9.78, 10.15, 10.15, 10.83, 11.13, 11.56, 12.33, 13.24, 14.88, 14.95, 15.59, 16.02, 15.87, 15.87, 15.54, 15.65, 15.2, 15.2, 15.2, 14.75, 14.3, -12.96, -9.75, -9.6, -7.27, -4.2, -6.17, -4.6, -2.6, -3.25, -0.0, -0.0, -0.0, -0.0, -0.0, -2.97, -3.11, -3.25, -0.0, -0.0, 11.18, 11.62, 10.4, 4.8, 4.2, 9.83, 7.27, 6.45, 14.75, 11.06, 8.53, 11.62, -0.0, -0.0, 12.07, 4.1, 2.13, 0.0, 0.0, -0.0, -0.0, 8.4, 13.28, 18.21, 13.59, 11.0, 11.53, 15.02, 16.39, 17.97, 18.33, 17.97, 16.12, 14.18, 10.8, 8.73, 8.38, 10.12, 10.37, 12.39, 14.53, 12.04, 12.04, 13.23, 12.96, 11.84, 8.85, 8.85, 9.67, 9.67, 9.92, 9.92, 9.92, 10.57, 10.57, 10.31, 10.59, 10.32, 9.78, 10.15, 10.43, 10.83, 11.13, 11.56, 12.01, 12.78, 14.06, 14.51, 15.59, 15.71, 16.3, 16.31, 16.07, 16.09, 16.09, 16.09, 16.09, 16.06, 15.43, 14.6, 12.96, -0.0, -4.0, -4.83, -4.4, -3.98, -2.49, -2.39, -0.0, -0.0, -0.0, -0.0, -0.0, -0.0, -0.0, -0.0, -0.0, -0.0, -0.0, -0.0, -0.0, 7.59, 7.59, 10.28, 10.28, 9.6, 5.4, 5.8, 8.85, 10.0, 9.6, 4.8, -0.0, 10.28, 6.45, 0.0, 0.0, 17.43, 21.9, -18.33, -0.0, 14.86, 12.64, 0.0, 3.77, 13.91, 19.08, 18.78, 17.88, 17.43, 16.76, 14.61, 13.15, 9.97, 7.54, 10.37, 11.99, 12.87, 13.99, 11.99, 10.73, 12.3, 12.72, 11.45, 10.01, 10.01, 9.31, 9.67, 9.92, 9.92, 9.92, 10.57, 10.57, 10.31, 10.59, 10.32, 10.05, 10.15, 10.43, 10.83, 11.13, 11.25, 12.33, 12.78, 13.26, 13.76, 14.79, 15.71, 15.6, 15.85, 16.09, 16.09, 16.54, 16.09, 16.07, 15.98, 15.04, 14.11, 13.57, 8.22, -1.76, -3.82, -5.06, -5.7, -3.11, -0.0, -0.0, -0.0, -0.0, -0.0, -0.0, -0.0, -0.0, -0.0, -0.0, -0.0, -0.0, -0.0, -0.0, -0.0, 7.27, 9.2, 9.2, 7.59, 7.9, 10.0, 10.8, 11.62, 10.73, -0.0, -3.39, -4.4, 9.39, 3.25, 0.0, -7.0, -14.22, -13.91, -13.91, 21.46, 0.0, -6.31, -3.51, 0.0, 13.91, 17.81, 16.54, 15.99, 16.6, 11.99, 10.47, 8.85, 8.1, 11.6, 10.73, 12.27, 13.28, 12.3, 10.4, 9.42, 12.79, 12.3, 10.01, 10.01, 9.31, 9.67, 9.67, 9.67, 9.92, 10.31, 10.57, 10.31, 10.86, 10.59, 10.05, 10.43, 10.43, 11.13, 10.33, 12.56, 11.22, 11.7, 12.65, 13.8, 14.97, 15.93, 14.79, 15.77, 15.27, 15.97, 12.86, 14.95, 15.34, 13.32, 13.02, 12.13, 11.5, 12.07, -0.0, -1.76, -4.05, -5.95, -6.2, -3.39, -0.0, -0.0, -0.0, -0.0, -0.0, -0.0, -0.0, -0.0, -0.0, -0.0, -0.0, -0.0, -0.0, -0.0, 4.6, 7.27, 9.2, 10.0, 11.45, 11.62, 11.62, 11.62, 11.18, -0.0, -4.4, -5.21, 9.39, 7.27, 6.44, 6.4, 0.0, 9.0, 22.05, 24.59, 18.33, -4.01, -7.8, -5.23, 0.0, 0.0, 7.6, 10.46, 10.33, 10.05, 10.05, 10.05, 7.4, 10.05, 10.12, 8.38, 10.12, 11.5, 11.99, 8.85, 10.82, 12.27, 11.88, 11.88, 9.31, 9.67, 9.67, 9.67, 9.92, 9.92, 10.31, 10.31, 10.86, 10.59, 10.32, 10.43, 10.43, 10.71, 11.13, 10.76, 11.22, 10.11, 12.01, 13.06, 14.71, 14.49, 14.0, 14.28, 12.7, 13.02, 12.9, 11.81, 12.58, 11.38, 10.87, 10.01, 8.53, 12.07, 5.2, -0.0, -0.0, -1.76, -3.39, -1.69, -0.0, -0.0, -0.0, 2.19, 2.19, -0.0, -0.0, -0.0, -0.0, -0.0, -0.0, -0.0, -0.0, -0.0, 3.11, 5.46, 9.3, 8.93, 10.73, 11.62, 11.18, 10.73, 10.73, -0.0, -4.6, -7.27, -0.0, 11.18, 12.07, 13.15, 16.31, 19.57, 24.14, 26.37, 20.67, 14.57, 3.59, -6.5, -3.42, 0.0, 3.16, 6.14, 8.74, 8.51, 8.51, 9.77, 10.12, 12.58, 9.8, 7.51, 6.9, 10.82, 11.68, 8.87, 7.69, 10.75, 11.52, 11.52, 9.31, 9.67, 9.67, 9.67, 9.67, 9.67, 10.31, 10.31, 10.31, 10.86, 10.32, 10.43, 10.43, 10.71, 11.13, 11.56, 11.22, 10.18, 9.11, 11.36, 12.9, 12.14, 12.49, 12.16, 12.16, 12.22, 11.69, 11.53, 11.38, 11.45, 11.4, 10.4, 8.22, 11.62, 8.22, 5.0, 1.84, -0.0, -0.0, -0.0, -0.0, -0.0, -0.0, 1.98, -0.0, -0.0, -0.0, -0.0, -0.0, -0.0, -0.0, -0.0, -0.0, -0.0, 3.39, 5.7, 7.9, 7.9, 10.4, 7.9, 0.0, 11.18, -10.73, -10.0, -9.2, -9.6, -7.59, -0.0, 7.19, 9.8, 12.52, 16.69, 23.04, 25.03, 18.36, 13.03, 8.4, -4.38, -11.27, -3.68, 0.0, 5.98, 8.85, 10.73, 12.39, 13.41, 13.41, 13.15, 13.23, 11.91, 9.77, 9.48, 11.2, 7.79, 6.2, 7.32, 8.18, 8.18, 8.51, 9.67, 9.67, 9.67, 9.67, 9.67, 10.05, 10.31, 10.31, 10.05, 10.71, 10.43, 10.43, 10.71, 11.13, 11.13, 11.56, 10.95, 10.54, 11.29, 11.76, 11.14, 11.2, 11.54, 12.57, 13.63, 14.2, 13.97, 13.5, 12.91, 12.07, 11.62, 11.62, 11.28, 9.3, 7.9, 5.2, 3.19, 1.39, -0.0, -0.0, -0.0, -0.0, 1.71, -0.0, -0.0, -0.0, -0.0, -0.0, -0.0, -0.0, -0.0, -0.0, -0.0, -0.0, 3.53, 2.82, 3.04, -0.0, -10.73, -10.28, -10.73, -10.0, -10.0, -10.0, -7.9, -8.22, -5.4, -0.0, 6.6, 11.06, 16.09, 18.95, 23.42, 5.0, 6.31, 11.36, 11.73, 0.0, -7.8, -3.01, 2.72, 7.2, 12.65, 14.3, 13.41, 13.15, 14.3, 14.6, 12.07, 10.8, 9.48, 10.12, 9.16, 6.4, 6.4, 6.6, 6.6, 8.86, 8.86, 8.86, 9.67, 9.67, 10.05, 10.05, 10.05, 10.05, 10.05, 10.71, 10.43, 10.43, 10.43, 10.71, 11.13, 11.13, 11.25, 11.29, 12.01, 12.84, 12.65, 12.0, 11.64, 12.65, 13.42, 14.74, 15.36, 14.9, 14.27, 13.41, 12.96, 12.07, 11.03, 10.4, 9.08, 6.45, 4.58, 2.82, 2.82, 1.28, 1.44, 1.64, 1.64, -0.0, -0.0, -0.0, -0.0, -0.0, -0.0, -0.0, -0.0, -0.0, -0.0, -0.0, -0.0, -0.0, -0.0, -0.0, -8.4, -9.39, -10.28, -11.62, -10.4, -7.9, -5.0, -0.0, -0.0, 11.62, 12.52, 13.86, 17.88, -0.0, -0.0, 0.0, 3.36, 7.19, 11.36, 13.26, 4.66, -3.77, -2.79, 0.0, 3.79, 10.43, 12.39, 12.39, 12.27, 11.87, 14.88, 12.89, 10.12, 10.12, 8.58, 6.4, 7.36, 7.93, 7.93, 8.86, 8.86, 8.86, 8.86, 9.67, 10.05, 10.05, 10.05, 10.05, 10.46, 10.71, 10.43, 10.43, 10.43, 10.71, 11.13, 11.13, 11.7, 11.7, 12.42, 13.18, 13.34, 13.42, 13.2, 12.42, 13.02, 13.77, 14.65, 15.12, 15.07, 14.27, 13.86, 12.96, 12.42, 10.68, 9.3, 7.9, 5.54, 4.08, 2.82, 2.52, 2.82, 1.44, 1.64, -0.0, -0.0, -0.0, -0.0, -0.0, -0.0, -0.0, -0.0, -0.0, -0.0, -0.0, -0.0, -3.25, -3.82, -5.8, -0.0, -8.94, -9.39, -11.18, -10.4, -6.2, -3.82, -0.0, -0.0, 11.18, 0.0, 5.0, -20.56, -0.0, -0.0, 16.54, 2.63, 6.65, 8.3, 11.52, 13.59, 3.9, -2.87, -2.47, 0.0, 0.0, 2.72, 7.4, 7.8, 10.41, 12.64, 14.13, 9.48, 7.69, 0.0, 4.52, 7.36, 8.87, 8.87, 8.86, 8.86, 8.86, 8.86, 8.86, 9.8, 10.05, 10.05, 10.05, 10.46, 10.19, 10.43, 10.43, 10.43, 10.43, 11.13, 10.83, 11.7, 11.7, 12.5, 12.84, 13.26, 13.76, 13.8, 13.41, 13.02, 13.37, 13.7, 14.42, 14.25, 14.42, 14.26, 13.41, 12.96, 12.14, 10.68, 8.59, 7.15, 5.54, 4.08, 4.08, 2.82, 3.07, 1.58, 1.84, -0.0, -0.0, -0.0, -0.0, -0.0, -0.0, -0.0, -0.0, -4.8, -4.6, -4.6, -4.6, -4.4, -11.62, 12.52, 11.18, 0.0, -6.95, -7.59, -3.68, -3.82, -0.0, -0.0, -8.53, 8.22, 9.48, 8.68, 21.9, 24.79, 24.79, 20.56, 12.64, 11.06, 11.17, 10.73, 11.09, 3.16, -2.66, 0.0, 0.0, 0.0, 2.66, 5.16, 6.87, 7.0, 12.01, 13.99, 14.3, 13.19, 7.44, 8.66, 9.8, 9.8, 8.62, 8.62, 8.62, 8.86, 8.86, 9.23, 9.8, 9.8, 10.05, 10.46, 10.19, 10.71, 10.43, 10.43, 10.43, 10.83, 10.83, 11.7, 11.7, 12.12, 12.84, 13.26, 13.7, 14.03, 13.64, 13.41, 13.37, 12.96, 13.15, 13.47, 13.75, 13.7, 13.36, 13.41, 12.44, 11.71, 10.09, 8.59, 6.5, 5.54, 3.92, 4.08, 3.07, 3.07, 1.76, 1.76, -0.0, -0.0, -0.0, -0.0, -0.0, -1.84, -0.0, -3.82, -5.0, -4.8, -4.6, -4.4, -10.28, 11.62, 8.53, 10.8, 8.4, -0.0, -0.0, -3.82, -3.96, -0.0, -9.17, 0.0, 8.53, 10.12, 12.01, 24.14, 27.27, 26.37, 21.25, 13.96, 10.12, 9.08, 10.47, 8.66, 2.79, -2.66, -2.4, 0.0, 2.34, 4.3, 2.43, 0.0, 0.0, 16.54, 15.2, 14.53, 11.88, 10.12, 10.82, 10.82, 8.62, 8.62, 8.62, 8.86, 9.23, 9.23, 9.23, 9.8, 10.19, 10.19, 10.19, 10.71, 10.43, 9.92, 10.43, 10.43, 10.83, 11.29, 11.7, 12.12, 12.12, 12.5, 12.92, 13.63, 13.65, 13.64, 13.41, 13.37, 13.15, 12.93, 12.82, 12.94, 12.75, 12.9, 12.52, 12.52, 12.04, 10.04, 8.53, 6.45, 5.54, 4.58, 5.2, 3.39, 1.69, 1.84, -0.0, -0.0, -0.0, -0.0, -0.0, -0.0, -1.69, -3.82, -6.2, -7.59, -9.6, -9.2, -8.4, -10.28, 12.07, 10.6, 11.18, 10.18, 5.6, -0.0, -0.0, 12.96, 0.0, 0.0, 5.8, 6.9, 6.6, 7.6, 20.12, 27.27, 24.59, 16.87, 10.12, 8.53, 8.22, 9.17, 7.36, 0.0, -4.91, 0.0, 2.4, 0.0, 0.0, -6.6, -2.98, 2.72, 14.95, 14.18, 11.87, 11.17, 11.17, 11.17, 8.03, 8.03, 8.62, 8.86, 9.23, 9.23, 9.23, 9.23, 9.8, 10.19, 10.19, 10.19, 10.19, 10.19, 10.19, 10.83, 10.83, 11.29, 11.7, 12.12, 12.12, 12.12, 12.92, 12.57, 12.98, 13.27, 13.41, 13.41, 13.19, 12.99, 13.15, 13.37, 13.15, 12.88, 12.52, 12.52, 12.04, 10.41, 8.53, 7.54, 6.45, 5.2, 5.0, 3.25, 3.11, 1.76, -0.0, -0.0, -0.0, -0.0, -0.0, -0.0, -1.76, -3.82, -5.52, -8.22, -10.0, -10.73, -10.28, -10.28, 11.18, 11.18, 11.18, 11.71, 8.22, -0.0, 13.41, 12.52, 0.0, 0.0, 4.52, 8.58, 9.48, 3.36, -10.75, -19.67, 16.75, 15.99, 11.09, 9.17, 8.53, 8.22, 10.02, 7.51, 0.0, -2.65, -4.3, -8.05, -11.06, -6.6, -2.43, 0.0, 10.33, 12.01, 11.7, 11.06, 12.65, 12.65, 8.03, 8.03, 8.62, 8.99, 9.23, 9.23, 9.23, 9.23, 9.23, 10.19, 10.19, 10.19, 10.19, 10.19, 10.19, 10.83, 10.83, 10.83, 11.7, 11.7, 12.12, 11.79, 12.22, 12.22, 12.62, 12.62, 12.65, 13.2, 13.19, 13.39, 13.2, 13.27, 13.59, 13.09, 12.86, 12.52, 12.04, 11.2, 9.42, 7.54, 7.26, 5.98, 3.53, 2.93, 2.93, 1.69, -0.0, -0.0, -0.0, -0.0, -0.0, -0.0, -2.02, -2.02, -3.98, -5.95, -10.8, -11.62, -10.73, -11.18, -11.18, 11.18, 12.07, 11.87, 10.8, -0.0, 13.86, 12.52, 0.0, 0.0, 0.0, 11.8, 12.74, 10.3, 0.0, -12.96, -9.8, 6.08, 11.27, 12.01, 8.85, 6.83, 9.3, 9.53, 10.37, 0.0, -7.44, -10.05, -5.09, -2.15, 0.0, 0.0, 2.05, 7.98, 10.87, 12.01, 12.71, 12.71, 8.03, 8.03, 8.03, 8.99, 9.23, 9.23, 9.23, 9.23, 9.23, 10.19, 10.19, 10.19, 10.19, 10.19, 10.61, 10.33, 10.83, 10.83, 11.7, 11.38, 11.79, 11.79, 11.5, 11.5, 11.88, 11.95, 12.37, 12.79, 12.56, 13.39, 13.2, 13.44, 13.27, 13.09, 12.86, 12.52, 12.35, 11.2, 9.42, 8.53, 7.54, 5.98, 4.32, 2.1, -0.0, -0.0, -0.0, -0.0, -0.0, -0.0, -0.0, -0.0, -2.02, -2.02, -2.6, -4.8, -5.46, -10.6, -11.62, -11.18, -10.73, 11.18, 12.07, 11.62, 12.07, 12.52, -13.41, -14.3, -11.18, 0.0, 2.6, 6.9, 13.97, 15.77, 14.46, 13.59, 10.91, 0.0, 4.45, 14.22, 14.86, 9.87, 8.21, 9.3, 10.16, 11.9, -3.36, -6.4, -4.18, -1.78, -1.73, 0.0, 0.0, 4.67, 8.43, 9.67, 11.16, 11.16, 8.03, 8.03, 8.03, 8.99, 8.99, 9.23, 9.23, 9.23, 8.99, 9.37, 10.19, 10.19, 10.19, 10.19, 10.61, 10.33, 10.54, 10.83, 10.83, 11.7, 11.79, 11.06, 11.5, 11.5, 11.17, 11.6, 12.0, 12.13, 12.6, 13.19, 13.62, 13.44, 13.7, 13.53, 13.31, 12.96, 12.35, 11.87, 10.73, 8.53, 8.53, 7.24, 4.32, 2.19, -0.0, -0.0, -0.0, -0.0, -0.0, -0.0, -0.0, -0.0, -2.49, -2.6, -2.6, -2.6, -2.49, -3.68, -7.59, -11.18, -11.18, 11.62, 12.07, 0.0, 0.0, 0.0, 0.0, -5.8, 0.0, 5.7, 3.7, 3.07, 8.05, 22.12, 20.38, 16.28, 14.03, 10.43, 4.01, 7.3, 14.02, 12.51, 8.97, 8.94, 10.94, 12.79, 12.27, 6.4, 0.0, 0.0, -1.63, -1.83, 0.0, 0.0, 3.9, 5.65, 8.43, 8.43, 7.82, 7.82, 8.39, 8.39, 8.99, 8.99, 8.99, 8.99, 8.99, 9.37, 9.92, 10.19, 10.19, 10.19, 10.61, 10.33, 10.05, 10.54, 10.83, 10.95, 10.65, 11.06, 11.5, 11.17, 11.6, 11.6, 11.26, 10.99, 13.27, 12.17, 12.56, 13.02, 13.28, 13.15, 13.44, 13.41, 12.96, 12.3, 10.73, 10.01, 7.24, 7.24, 2.82, -0.0, -0.0, -0.0, -0.0, -0.0, -0.0, -0.0, -0.0, -2.49, -2.6, -2.6, -2.02, -2.49, -2.71, -0.0, -0.0, -4.6, -12.07, -11.62, -8.22, -10.0, -8.22, 11.18, 10.28, 0.0, 0.0, 4.48, 6.17, 0.0, 0.0, 15.62, 28.36, 19.41, 13.07, 9.3, 9.8, 12.64, 14.31, 12.64, 12.01, 10.18, 11.77, 13.39, 14.3, 14.18, 13.88, 7.69, 0.0, -3.93, -1.83, 0.0, 2.0, 3.79, 5.65, 5.65, 7.82, 7.82, 8.16, 8.39, 8.39, 8.99, 8.99, 8.99, 8.99, 9.37, 9.37, 9.92, 10.19, 10.19, 10.61, 10.33, 10.33, 10.05, 10.54, 10.54, 10.65, 11.06, 11.17, 10.75, 11.2, 10.87, 10.87, 10.99, 10.73, 13.2, 11.5, 12.39, 12.66, 13.15, 13.44, 13.86, 13.41, 13.23, 12.04, 10.01, 8.85, 6.94, 2.93, -0.0, -0.0, -0.0, -0.0, -0.0, -0.0, -0.0, -0.0, -2.49, -2.71, -2.6, -2.49, -2.6, -2.6, -0.0, -0.0, -0.0, -7.59, -10.73, -11.62, -10.73, -11.18, 11.18, 10.73, 10.28, 8.22, 9.17, 10.8, 11.18, 3.68, 5.98, 25.89, 23.42, 16.39, 10.43, 13.86, 14.75, 16.09, 16.76, 17.53, 16.6, 14.85, 14.46, 14.39, 13.89, 14.03, 13.01, 9.17, 0.0, -1.96, -1.77, 0.0, 1.89, 3.69, 3.69, 7.82, 7.82, 8.16, 8.16, 8.39, 8.39, 8.99, 8.99, 9.37, 9.37, 9.37, 9.92, 9.92, 10.19, 10.33, 10.33, 10.05, 10.05, 10.05, 9.77, 10.18, 10.31, 10.75, 10.75, 10.87, 10.87, 10.54, 10.99, 11.33, 11.57, 11.5, 11.72, 12.25, 13.15, 13.44, 13.72, 13.86, 13.86, 13.15, 11.6, 9.17, 6.94, 3.96, -0.0, -0.0, -0.0, -0.0, -0.0, -0.0, -0.0, -3.39, -2.71, -4.8, -4.6, -2.49, -2.49, -0.0, -0.0, -0.0, -0.0, -0.0, 11.18, 11.18, 11.18, 10.28, 10.73, 10.73, 10.73, 11.62, 12.52, 12.52, 12.52, 8.85, 8.83, 16.75, 22.23, 21.9, 15.99, 15.59, 16.76, 16.99, 16.99, 16.82, 16.33, 15.61, 14.65, 14.65, 13.59, 12.27, 11.99, 11.87, 8.85, 0.0, -1.66, -1.33, 1.83, 1.89, 1.89, 8.16, 8.16, 8.16, 8.16, 8.16, 8.39, 8.39, 8.99, 9.37, 9.37, 9.37, 9.37, 9.92, 10.19, 9.37, 10.33, 10.05, 10.05, 10.05, 10.05, 10.18, 10.31, 10.31, 10.75, 10.87, 10.43, 10.12, 10.12, 10.58, 11.07, 11.72, 12.11, 11.72, 11.99, 12.56, 13.44, 13.72, 13.86, 13.15, 11.99, 11.16, 9.17, 5.6, -0.0, -0.0, -0.0, -0.0, -3.53, -3.53, -3.39, -3.39, -6.2, -4.8, -4.6, -2.6, -3.25, -0.0, -0.0, -0.0, -0.0, -0.0, -0.0, -0.0, 7.9, 11.18, 11.18, 10.73, 11.18, 11.18, 0.0, 0.0, 0.0, 10.12, 11.77, 14.8, 19.72, 20.16, 16.01, 17.44, 18.0, 17.43, 16.86, 15.04, 13.97, 14.65, 13.86, 13.43, 13.56, 11.5, 10.01, 8.85, 11.2, 5.6, 0.0, -1.43, -1.17, 0.0, 0.0, 7.93, 7.93, 8.16, 8.16, 8.16, 8.16, 8.39, 8.39, 9.37, 9.37, 9.37, 9.37, 9.37, 9.37, 9.37, 9.37, 10.05, 10.05, 10.05, 10.05, 10.18, 10.31, 10.31, 9.97, 10.43, 10.43, 10.12, 10.58, 10.58, 10.63, 11.72, 11.9, 11.75, 11.99, 12.56, 13.01, 12.89, 13.41, 13.41, 12.72, 11.99, 9.17, -0.0, -0.0, -0.0, -0.0, -5.2, -3.68, -3.53, -3.53, -5.95, -5.95, -5.95, -5.95, -3.25, -3.11, -0.0, -0.0, -0.0, -0.0, -0.0, -0.0, -0.0, -0.0, 10.28, 11.18, 10.28, 10.73, 11.18, 11.18, 0.0, 0.0, 11.06, 15.91, 18.41, 16.91, 17.3, 18.42, 20.36, 21.8, 19.99, 15.9, 13.57, 12.04, 12.72, 12.46, 11.92, 11.2, 11.2, 10.12, 7.78, 9.17, 9.17, 4.1, 0.0, -1.61, 0.0, 0.0, 7.93, 7.93, 8.16, 8.16, 8.16, 8.16, 8.39, 8.39, 8.77, 9.37, 9.37, 9.37, 9.37, 9.37, 9.37, 9.37, 9.52, 9.52, 9.52, 9.52, 9.67, 9.39, 9.82, 9.97, 10.43, 10.43, 9.62, 10.12, 10.12, 10.63, 10.69, 11.29, 12.13, 12.39, 12.39, 12.33, 12.89, 13.23, 13.41, 13.41, 13.41, 12.96, 12.52, 12.96, 11.18, -12.07, -5.4, -5.2, -5.2, -5.0, -7.9, -5.95, -5.95, -5.95, -3.11, -4.4, -0.0, -0.0, -0.0, -0.0, -0.0, -0.0, -0.0, 9.83, 10.73, 11.18, 9.83, 10.28, 10.73, 10.73, 11.62, 0.0, 11.06, 18.78, 20.91, 17.53, 12.98, 16.12, 21.2, 21.2, 18.42, 16.54, 14.11, 12.04, 10.35, 11.6, 12.56, 11.92, 10.79, 10.12, 7.78, 9.48, 11.99, 9.48, 0.0, 0.0, -1.9, -1.33, 7.93, 7.93, 7.93, 8.16, 8.16, 8.16, 8.16, 8.16, 8.77, 9.37, 9.37, 9.12, 9.12, 9.12, 9.37, 9.12, 9.12, 9.52, 9.52, 9.52, 9.67, 9.67, 9.82, 9.97, 10.43, 9.62, 9.62, 10.12, 10.12, 10.12, 10.69, 11.29, 11.44, 12.13, 12.39, 12.03, 11.99, 13.15, 13.41, 13.41, 13.41, 12.96, 12.52, 12.96, 11.18, -12.07, -10.8, -5.4, -5.2, -7.9, -7.9, -7.59, -7.59, -7.27, -4.4, -4.4, -0.0, -0.0, -0.0, -0.0, -0.0, -0.0, -0.0, 9.39, 9.83, 10.73, 10.73, 10.28, -0.0, -0.0, 11.18, 0.0, 0.0, 16.91, 24.02, 22.36, 12.51, 11.36, 15.91, 16.48, 14.75, 14.11, 14.11, 13.7, 11.88, 11.99, 12.03, 12.03, 11.16, 10.47, 8.05, 9.48, 11.16, 11.99, 6.0, 0.0, 0.0, -1.9, 7.93, 7.93, 7.93, 7.93, 8.16, 8.16, 8.16, 8.16, 8.53, 8.53, 8.53, 9.12, 9.37, 9.37, 9.37, 9.37, 9.37, 9.52, 9.52, 9.25, 9.67, 9.39, 9.82, 9.97, 9.92, 9.62, 9.62, 10.12, 10.12, 9.57, 10.12, 10.77, 11.44, 12.13, 11.64, 12.42, 12.39, 12.45, 13.01, 12.72, 13.41, 12.96, 12.96, 0.0, 12.96, -11.62, -10.8, -10.8, -10.4, -10.0, -10.0, -7.59, -7.59, -7.27, -4.4, -4.4, -6.64, -0.0, -0.0, -0.0, -0.0, -0.0, -0.0, -0.0, 10.28, 10.28, 9.83, 10.28, -0.0, -0.0, 11.18, 8.22, 0.0, 8.68, 19.67, 26.61, 24.14, 12.36, 10.69, 11.35, 11.64, 12.72, 12.89, 13.23, 13.59, 14.03, 13.75, 13.99, 13.57, 12.87, 11.09, 11.09, 12.39, 12.39, 6.0, 4.24, 0.0, 0.0, 7.93, 7.93, 7.93, 7.93, 7.93, 7.93, 8.16, 8.16, 8.53, 8.53, 8.53, 9.37, 9.37, 9.37, 9.37, 9.37, 9.37, 9.52, 9.52, 8.68, 8.83, 8.83, 8.99, 9.44, 9.92, 9.62, 9.06, 9.57, 9.57, 9.57, 10.12, 9.8, 10.77, 10.86, 11.64, 11.9, 12.39, 12.87, 12.39, 13.15, 11.99, 9.17, 0.0, 0.0, -8.85, -13.41, -10.4, -10.0, -10.73, -10.73, -9.6, -9.2, -9.2, -9.2, -8.8, -6.64, -6.64, -4.0, -4.0, -2.97, -2.97, -0.0, -0.0, -0.0, -0.0, -0.0, 9.83, 10.73, -7.27, -0.0, 11.62, 8.22, 0.0, 3.36, 13.99, 17.11, 21.49, 25.87, 14.3, 11.53, 13.7, 14.75, 15.2, 15.97, 16.09, 15.2, 14.75, 14.75, 14.6, 14.11, 13.28, 13.28, 12.39, 13.15, 6.0, 4.1, 3.14, 3.14, 7.93, 7.93, 7.93, 7.93, 7.93, 7.93, 8.16, 8.16, 8.53, 8.53, 8.77, 8.77, 9.37, 9.37, 9.37, 9.37, 9.37, 9.52, 8.93, 8.68, 8.83, 8.83, 8.99, 9.44, 9.44, 9.34, 9.06, 9.57, 9.57, 9.57, 9.5, 10.12, 10.12, 10.86, 10.52, 10.99, 11.17, 11.44, 11.9, 9.8, 6.2, 9.48, 0.0, 0.0, 0.0, -12.96, -12.07, -10.73, -10.28, -10.28, -10.28, -9.83, -8.8, -8.8, -8.4, -6.64, -6.32, -4.0, -4.0, -2.83, -2.97, -2.17, -2.69, -0.0, -0.0, -0.0, -0.0, -0.0, -4.6, -7.9, 11.62, 5.0, 0.0, 0.0, 0.0, 16.09, 15.49, 30.11, 28.16, 20.82, 18.78, 17.64, 17.89, 18.03, 17.36, 16.54, 14.75, 14.3, 14.64, 13.88, 13.75, 13.57, 12.87, 11.16, 0.0, 0.0, 0.0, 0.0, 7.11, 7.11, 7.93, 7.93, 7.93, 7.93, 8.16, 8.16, 8.53, 8.53, 8.77, 8.77, 8.77, 9.37, 9.37, 9.37, 8.53, 8.53, 8.93, 8.43, 8.83, 8.57, 8.99, 9.44, 8.85, 9.34, 9.06, 9.06, 9.57, 9.57, 9.5, 10.12, 10.12, 10.12, 9.8, 10.99, 11.17, 11.44, 10.12, 10.12, 6.2, 0.0, 0.0, 0.0, 0.0, -12.96, -12.52, -11.62, -10.73, -10.28, -9.83, -9.83, -9.39, -9.39, -9.39, -8.94, -6.32, -6.01, -3.8, -2.83, -2.83, -2.17, -2.17, -0.0, -0.0, -0.0, -0.0, -0.0, -4.6, -7.9, 11.18, 4.8, 0.0, 2.54, 3.25, 10.75, 17.88, 23.37, 30.43, 25.87, 21.59, 21.19, 22.53, 21.34, 19.61, 16.99, 15.57, 14.4, 13.57, 13.57, 13.44, 13.15, 12.87, 13.41, 12.96, 0.0, 0.0, 0.0, 7.11, 7.11, 7.71, 7.93, 7.93, 7.93, 7.93, 7.93, 8.16, 8.53, 8.53, 8.53, 8.77, 8.53, 8.53, 8.53, 8.53, 8.29, 8.68, 8.43, 8.57, 8.57, 8.99, 8.4, 8.85, 9.06, 9.06, 9.06, 9.06, 9.57, 8.94, 9.5, 9.42, 10.12, 9.31, 10.12, 10.12, 10.12, 10.12, 7.93, 4.38, 0.0, 0.0, 0.0, 0.0, -12.52, -12.52, -12.07, -11.62, -11.18, -10.28, -9.83, -9.83, -9.39, -9.39, -8.49, -6.01, -5.69, -5.69, -6.01, -4.71, -4.0, -4.0, -2.06, -0.0, -0.0, -0.0, -4.2, -4.6, -7.59, 11.62, 4.6, 2.71, 5.6, 7.44, 12.79, 15.61, 18.33, 22.8, 24.49, 23.14, 23.28, 23.19, 22.48, 19.84, 17.88, 16.9, 15.71, 14.42, 12.39, 13.28, 12.14, 9.17, 12.96, 12.96, 12.52, 12.52, 12.52, 7.11, 7.11, 7.11, 7.71, 7.93, 7.71, 7.93, 7.93, 7.93, 8.16, 8.16, 8.53, 8.53, 8.53, 8.53, 8.29, 8.29, 8.29, 8.43, 8.43, 8.22, 7.98, 8.4, 8.4, 8.58, 9.06, 9.06, 9.06, 9.06, 8.94, 8.94, 9.5, 9.42, 9.42, 9.31, 9.16, 10.12, 10.12, 8.58, 7.93, 4.38, 0.0, 0.0, 0.0, 0.0, 0.0, -8.53, -10.8, -10.4, -10.4, -11.18, -10.73, -10.28, -9.83, -6.95, -8.94, -6.32, -6.01, -5.69, -4.46, -4.71, -3.8, -4.0, -4.2, -2.83, -0.0, -0.0, -6.32, -6.95, -7.27, 0.0, 4.8, 5.2, 8.85, 13.41, 13.86, 15.2, 16.09, 17.88, 17.19, 19.04, 25.36, 26.3, 21.92, 20.72, 19.22, 17.89, 16.54, 13.99, 13.19, 12.72, 12.07, 0.0, 0.0, 12.52, 12.07, 12.07, 12.07, 7.11, 7.11, 7.11, 7.11, 7.11, 7.11, 7.11, 7.93, 7.93, 7.93, 7.93, 7.93, 8.29, 8.29, 8.29, 8.29, 8.29, 8.06, 8.43, 7.82, 8.22, 7.98, 8.14, 8.14, 8.58, 9.06, 9.06, 9.06, 8.41, 8.94, 8.94, 8.78, 8.78, 8.58, 9.31, 9.16, 8.94, 7.36, 6.4, 6.2, 4.38, 0.0, 0.0, 0.0, 0.0, 0.0, -8.53, -10.8, -10.4, -10.4, -11.18, -10.73, -10.73, -10.28, -6.95, -6.95, -6.32, -6.01, -3.6, -4.46, -4.46, -3.8, -3.8, -4.0, -4.96, -0.0, -0.0, -0.0, -9.83, -9.83, 0.0, 0.0, 0.0, 12.52, 12.96, 13.41, 14.3, 15.2, 15.27, 12.92, 14.42, 22.76, 27.12, 25.45, 23.25, 19.91, 17.19, 14.38, 13.7, 12.96, 12.52, 12.52, 8.53, 0.0, 0.0, 12.07, 12.07, 12.07, 7.11, 7.11, 7.11, 6.9, 7.11, 7.11, 7.11, 7.11, 7.71, 7.93, 7.93, 7.93, 7.93, 8.29, 8.29, 8.06, 8.06, 8.06, 7.82, 7.82, 7.59, 7.98, 8.14, 8.14, 8.58, 8.58, 9.06, 8.41, 8.41, 8.94, 8.94, 8.2, 8.78, 8.58, 8.58, 8.31, 7.93, 7.36, 5.15, 3.36, 3.25, 0.0, 0.0, 0.0, 0.0, -5.6, -5.4, -8.53, -10.4, -10.4, -10.0, -11.18, -10.73, -10.73, -7.27, -6.95, -6.64, -6.32, -3.8, -5.69, -4.22, -3.6, -5.1, -5.36, -4.96, -7.27, -0.0, -0.0, -6.95, -9.83, -7.27, 0.0, 0.0, 12.07, 12.52, 13.41, 13.86, 14.3, 13.19, 11.06, 14.18, 17.99, 22.62, 26.72, 18.97, 17.17, 14.57, 11.12, 12.58, 12.52, 12.52, 11.45, 10.4, 7.9, 0.0, 0.0, 0.0, 0.0, 6.9, 6.9, 6.9, 6.9, 6.9, 6.9, 6.9, 7.11, 7.11, 7.71, 7.71, 7.71, 7.71, 8.06, 8.06, 8.06, 8.06, 7.45, 7.82, 7.59, 7.59, 7.74, 7.74, 8.14, 8.58, 8.58, 8.41, 8.41, 8.41, 8.94, 8.94, 8.46, 9.06, 8.18, 8.58, 8.31, 7.93, 6.2, 5.15, 2.63, 3.25, 0.0, 0.0, 0.0, 0.0, -3.96, -5.4, -8.53, -8.22, -10.4, -10.0, -10.0, -11.18, -10.73, -10.28, -10.28, -6.95, -6.64, -3.8, -3.6, -4.46, -3.4, -4.83, -6.01, -6.79, -8.0, -6.95, -4.4, -4.4, -9.83, -9.83, -7.27, -7.9, 0.0, 12.52, 12.96, 13.41, 13.41, 10.12, 10.43, 12.52, 11.7, -11.16, -25.03, 0.0, 10.0, 6.0, 4.6, 9.3, 12.35, 11.91, 11.28, 8.93, 5.95, 3.25, 0.0, 0.0, 0.0, 6.9, 6.9, 6.9, 6.9, 6.9, 6.9, 6.9, 6.9, 6.9, 7.11, 7.71, 7.71, 7.71, 7.71, 8.06, 8.29, 7.45, 7.45, 7.59, 7.59, 7.36, 7.1, 7.1, 8.14, 8.58, 7.93, 8.41, 8.41, 8.41, 8.94, 9.22, 8.46, 8.46, 8.18, 8.58, 8.31, 7.1, 6.2, 4.38, 2.63, 0.0, 0.0, 0.0, 0.0, -3.04, -3.96, -6.7, -6.7, -8.22, -8.22, -8.22, -10.0, -10.0, -10.73, -10.73, -10.28, -9.33, -8.4, -6.32, -6.01, -4.46, -4.22, -4.56, -6.44, -6.9, -8.48, -8.4, -4.6, -3.25, -4.6, -10.28, 9.83, 9.83, 11.18, 12.07, 12.52, 12.96, 12.96, 9.8, 10.43, 12.27, -0.0, -13.99, -18.78, -8.62, 0.0, 0.0, 1.76, 3.39, 6.98, 9.67, 10.4, 8.94, 3.39, 0.0, 0.0, 0.0, 0.0, 6.9, 6.69, 6.69, 6.69, 6.69, 6.69, 6.69, 6.9, 6.9, 6.9, 6.9, 7.48, 7.71, 7.93, 8.29, 8.06, 7.45, 7.23, 7.59, 7.36, 6.73, 7.1, 7.1, 7.5, 7.5, 7.93, 8.41, 8.41, 8.68, 8.68, 8.46, 8.46, 8.46, 8.18, 6.95, 7.58, 5.63, 3.81, 4.38, 2.2, 0.0, 0.0, 0.0, 0.0, -3.04, -2.93, -6.7, -6.7, -6.45, -8.22, -8.22, -8.22, -10.0, -10.73, -10.73, -10.28, -9.54, -8.91, -8.48, -6.32, -4.71, -4.46, -5.37, -6.08, -7.06, -6.64, -8.91, -8.4, -6.95, -4.6, -0.0, -0.0, 7.27, -0.0, -0.0, 11.62, 12.52, 12.96, 13.41, 12.39, 10.12, -7.93, -12.27, -15.19, -6.61, -9.8, -3.42, 0.0, 1.39, 3.53, 6.2, 7.9, 8.22, 0.0, -2.6, -3.11, -3.11, -3.11, 6.69, 6.69, 6.69, 6.69, 6.69, 6.69, 6.69, 6.69, 6.69, 6.9, 7.11, 7.11, 7.93, 7.71, 8.06, 7.45, 7.23, 7.23, 7.01, 6.73, 6.73, 7.1, 7.1, 7.5, 7.5, 7.93, 7.93, 8.68, 8.68, 7.92, 8.46, 8.46, 7.59, 8.18, 6.95, 6.4, 4.87, 3.81, 3.68, 2.2, 0.0, 0.0, 0.0, 0.0, -2.45, -2.93, -5.4, -5.4, -6.7, -6.45, -8.22, -8.22, -10.4, -11.18, -10.73, -9.97, -9.54, -9.11, -8.48, -7.44, -6.01, -4.46, -5.69, -6.08, -7.06, -7.21, -9.39, -9.39, -9.83, -8.4, -6.95, -0.0, 7.59, 4.6, -0.0, -0.0, 12.07, 12.52, 12.96, 11.6, -0.0, -12.39, -12.65, -0.0, -19.6, -16.44, -6.81, 0.0, 1.71, 1.2, 3.06, 6.67, 5.98, 0.0, -4.8, -5.7, -5.7, -5.7, 6.48, 6.48, 6.48, 6.48, 6.69, 6.69, 6.69, 6.69, 6.9, 7.11, 7.11, 7.11, 7.11, 7.11, 7.11, 7.23, 7.23, 7.23, 7.01, 6.73, 6.73, 6.73, 7.1, 7.5, 7.5, 8.18, 8.18, 8.68, 8.68, 7.92, 7.92, 8.46, 7.59, 7.36, 6.95, 6.4, 4.87, 3.36, 3.68, 1.9, 0.0, 0.0, 0.0, 0.0, 0.0, -2.37, -2.93, -5.4, -5.4, -6.7, -6.7, -8.53, -8.22, -11.18, -10.73, -9.2, -9.33, -9.11, -8.67, -8.48, -7.07, -5.69, -5.37, -6.8, -7.06, -7.5, -7.52, -7.6, -10.28, -10.28, -10.28, -10.28, 10.28, -0.0, -0.0, -0.0, -0.0, -0.0, 8.85, 5.6, -9.17, -13.15, -12.96, -0.0, -0.0, -20.78, -12.33, -2.63, 0.0, 1.64, 2.19, 4.4, 0.0, -5.0, -4.8, -6.17, -6.17, -6.17, 6.48, 6.48, 6.48, 6.48, 6.48, 6.69, 6.69, 6.9, 6.9, 6.9, 6.9, 7.11, 6.9, 6.9, 6.9, 7.23, 7.23, 7.23, 6.6, 6.73, 6.94, 6.94, 7.32, 7.73, 7.73, 8.18, 8.43, 8.43, 7.92, 7.92, 7.92, 7.06, 7.36, 7.36, 6.95, 5.63, 4.38, 3.36, 3.25, 1.9, 1.83, 0.0, 0.0, 0.0, 0.0, -2.37, -2.37, -5.4, -5.4, -6.7, -6.7, -8.53, -8.22, -11.18, -10.73, -7.27, -8.8, -9.11, -8.67, -8.67, -8.06, -7.2, -5.37, -6.32, -7.81, -7.94, -7.97, -8.05, -10.28, -10.73, -10.73, -10.73, -10.73, -10.28, -6.95, -0.0, -0.0, 11.62, -0.0, -0.0, -8.85, -12.72, -16.1, -7.63, -0.0, -18.39, -16.54, -8.53, 0.0, 0.0, 1.84, 0.0, -10.4, -7.9, -6.71, -5.9, -5.9, -5.9, 6.48, 6.48, 6.48, 6.48, 6.69, 7.01, 7.01, 7.01, 6.9, 6.9, 6.9, 6.9, 6.9, 6.9, 6.9, 6.9, 7.23, 7.23, 6.6, 6.94, 6.94, 6.94, 7.32, 7.97, 7.97, 7.97, 8.43, 8.18, 7.92, 7.92, 7.92, 6.85, 7.36, 7.36, 6.4, 5.63, 4.38, 2.91, 3.25, 1.61, 1.61, 0.0, 0.0, 0.0, 0.0, -1.98, -2.37, -2.37, -2.93, -3.82, -6.7, -8.53, -10.4, -11.18, -10.73, 10.28, -6.95, -8.91, -9.11, -8.67, -8.06, -7.63, -7.2, -6.7, -7.63, -7.89, -8.38, -8.41, -8.49, -10.73, -10.73, -10.73, -10.73, -10.28, -0.0, -0.0, -0.0, 11.18, 11.62, -0.0, -8.85, -14.19, -17.64, -17.48, -0.0, -0.0, -17.35, -13.88, -11.18, -3.53, -5.2, -9.67, -11.62, -6.45, -6.71, -6.17, -6.17, -6.17, 6.48, 6.48, 6.48, 6.79, 6.79, 6.79, 6.79, 7.01, 6.69, 6.69, 6.69, 6.69, 6.9, 6.9, 6.9, 6.9, 7.23, 6.8, 6.8, 7.15, 7.15, 7.15, 7.54, 6.8, 7.21, 7.21, 7.66, 7.43, 7.43, 7.92, 7.68, 6.85, 6.85, 6.4, 6.2, 5.15, 3.98, 4.24, 2.91, 3.14, 1.61, 0.0, 0.0, 0.0, 0.0, 0.0, -1.98, -2.37, -2.93, -2.93, -3.82, -10.4, -11.18, -11.18, -10.73, 10.28, -0.0, -6.95, -8.91, -8.67, -8.48, -8.06, -7.63, -6.7, -6.7, -8.06, -8.24, -8.38, -8.49, -10.28, -10.28, -10.73, -10.28, -6.95, -4.4, -0.0, -0.0, -0.0, 10.73, -0.0, -12.71, -13.86, -15.65, -19.22, 25.93, 27.72, -13.59, -13.59, -10.37, -11.18, -11.4, -10.4, -6.7, -3.68, -5.0, -6.71, -6.71, -6.71, 6.48, 6.48, 6.79, 6.79, 6.79, 6.79, 6.79, 6.79, 6.79, 6.69, 6.69, 6.9, 6.9, 6.9, 7.11, 7.11, 7.45, 6.8, 6.8, 7.15, 7.15, 7.15, 6.8, 6.8, 6.99, 7.21, 6.99, 7.43, 7.21, 7.21, 7.21, 6.85, 6.85, 5.73, 6.2, 5.15, 3.85, 4.24, 2.91, 2.81, 1.43, 1.61, 0.0, 0.0, 0.0, 0.0, 0.0, -2.37, -2.37, -2.93, -3.82, -10.4, -11.18, -11.18, -10.73, 10.28, 9.83, -6.95, -8.4, -8.48, -8.48, -8.06, -6.7, -7.07, -7.07, -7.07, -8.48, -8.67, -8.94, -10.28, -10.28, -10.28, -9.83, -9.39, -6.64, -6.64, -0.0, -0.0, 10.28, -0.0, -11.87, -13.41, -14.75, -17.43, -16.75, 19.6, 21.01, -12.96, -12.87, -13.44, -12.96, -10.37, -5.8, -4.1, -3.04, -5.6, -5.6, -5.6, 6.57, 6.57, 6.57, 6.79, 6.79, 6.79, 6.79, 6.79, 6.79, 6.69, 6.69, 6.9, 6.9, 7.11, 7.11, 7.11, 6.8, 6.8, 6.8, 7.15, 7.15, 6.24, 6.8, 6.8, 6.99, 6.99, 6.99, 7.21, 7.21, 7.21, 7.21, 6.4, 6.85, 5.73, 5.73, 4.98, 4.98, 3.85, 4.1, 2.81, 2.81, 1.43, 1.61, 0.0, 0.0, 0.0, 0.0, 0.0, -2.37, -2.93, -3.68, -7.9, -7.9, -10.73, -10.73, -10.28, 10.28, 9.83, -6.64, -6.32, -7.07, -7.07, -7.07, -7.07, -7.07, -7.07, -6.32, -6.32, -8.48, -8.94, -9.39, -11.18, -10.28, -9.39, -9.39, -9.39, 9.39, -0.0, 10.28, 11.62, -8.85, -13.41, -14.6, -16.22, -10.2, 12.39, 0.0, -19.67, -14.88, -15.69, -16.09, -13.19, -9.48, -4.24, 0.0, 0.0, 0.0, 0.0, 6.57, 6.57, 6.57, 6.57, 6.57, 6.79, 6.79, 6.79, 6.79, 6.69, 6.69, 6.9, 6.9, 7.11, 7.11, 7.11, 6.8, 6.8, 6.8, 7.15, 6.94, 6.24, 6.43, 6.8, 6.6, 6.99, 6.78, 6.78, 7.21, 7.21, 7.21, 6.4, 6.2, 5.73, 4.74, 4.58, 4.98, 3.73, 4.1, 2.81, 2.81, 2.81, 1.43, 1.61, 0.0, 0.0, 0.0, 0.0, 0.0, -2.93, -3.68, -7.9, -7.9, -10.73, -10.28, -10.28, 10.28, 9.83, -0.0, -4.0, -6.32, -4.71, -4.71, -6.01, -6.01, -6.01, -6.32, -6.32, -6.32, -8.48, -9.39, -11.18, -10.28, -10.73, -9.39, -9.83, -0.0, -0.0, 10.28, 10.73, -0.0, -12.96, -14.16, -14.53, -11.65, 8.76, 12.15, 0.0, -18.78, -18.78, -17.88, -15.69, -10.43, 0.0, 5.8, 12.3, 12.3, 12.3, 6.57, 6.57, 6.57, 6.57, 6.57, 6.57, 6.57, 6.79, 6.79, 6.69, 6.69, 6.9, 6.9, 6.9, 6.9, 6.28, 6.6, 6.6, 6.6, 6.6, 6.94, 6.24, 6.24, 6.6, 6.6, 6.4, 6.78, 6.78, 6.78, 6.78, 7.21, 6.2, 6.2, 5.73, 5.55, 4.58, 4.98, 4.81, 3.73, 3.73, 2.81, 2.81, 2.81, 1.38, 1.55, 0.0, 0.0, 0.0, 0.0, 0.0, -3.68, 0.0, 0.0, -7.59, -10.73, -10.28, 10.28, 9.83, 9.39, -6.64, -6.32, -4.71, -4.71, -6.01, -6.01, -6.01, -6.32, -6.32, -6.32, -8.0, -9.39, -9.39, -8.4, -10.4, -8.4, -6.95, -6.95, -0.0, -0.0, -7.59, -8.22, -12.3, -13.59, -12.65, -11.27, 0.0, 13.39, 17.48, 18.39, 20.12, 19.22, 17.43, 16.09, 14.3, 12.96, 12.96, 12.96, 12.96, 6.57, 6.57, 6.57, 6.57, 6.57, 6.57, 6.57, 6.79, 6.79, 6.69, 6.69, 6.9, 6.9, 6.9, 6.9, 6.28, 6.6, 6.6, 6.6, 6.6, 6.94, 6.24, 6.24, 6.6, 6.6, 6.4, 6.78, 6.78, 6.78, 6.78, 7.21, 6.2, 6.2, 5.73, 5.55, 4.58, 4.98, 4.81, 3.73, 3.73, 2.81, 2.81, 2.81, 1.38, 1.55, 0.0, 0.0, 0.0, 0.0, 0.0, -3.68, 0.0, 0.0, -7.59, -10.73, -10.28, 10.28, 9.83, 9.39, -6.64, -6.32, -4.71, -4.71, -6.01, -6.01, -6.01, -6.32, -6.32, -6.32, -8.0, -9.39, -9.39, -8.4, -10.4, -8.4, -6.95, -0.0, -0.0, -0.0, -7.59, -8.22, -8.85, -13.41, -11.9, -8.93, 0.0, 16.75, 20.38, 21.01, 20.72, 19.84, 18.96, 17.2, 15.43, 12.96, 12.96, 12.96, 12.96]}, {"header": {"dx": 0.06612293990616946, "dy": 0.0552356325346848, "nx": 98, "ny": 59, "la1": 35.046912555036876, "la2": 31.78801023549047, "lo1": -121.43107172385933, "lo2": -114.95102361305473, "refTime": "2026041809", "parameterCategory": 1, "parameterNumber": 3}, "data": [-14.76, -14.76, -14.76, -14.4, -14.13, -13.14, -12.87, -12.73, -12.16, -12.09, -11.44, -11.5, -13.86, -12.96, 0.0, 0.0, -8.22, -7.9, -8.22, -6.94, -9.17, -9.17, 0.0, 0.0, 0.0, 0.0, 0.0, 0.0, 5.4, 8.53, 8.85, 9.17, 8.85, 7.9, 3.25, 0.0, -2.28, -4.2, -4.2, -5.7, -2.39, 0.0, 0.0, -2.45, -7.0, -8.78, -11.71, -14.25, -11.53, -7.69, -3.47, 13.19, 12.16, 11.06, 11.06, 12.22, 12.02, 10.02, 10.02, 8.68, 7.0, 13.99, 15.2, 14.42, 12.65, 8.68, 7.2, 5.09, 4.42, 5.65, 5.09, 3.79, 2.21, 0.0, 0.0, 2.57, 2.43, 1.58, 0.0, 0.0, 0.0, 9.48, 12.96, 8.85, 0.0, 0.0, -5.4, -10.84, -11.18, -11.18, -12.96, -14.3, -14.75, -15.2, -14.75, -14.16, -12.89, -11.92, -14.76, -14.76, -14.76, -14.11, -14.13, -13.49, -12.87, -12.62, -12.05, -11.93, -10.94, -11.8, -11.16, -11.2, -12.96, 0.0, -10.73, -10.8, -10.04, -9.3, -11.16, -9.17, -12.96, 0.0, 0.0, 0.0, 0.0, 0.0, 6.7, 11.2, 12.79, 12.39, 12.52, 9.83, 3.6, 0.0, 0.0, -1.75, -3.49, -3.82, -4.65, -6.0, -4.81, -8.43, -12.17, -15.71, -16.46, -12.88, -8.51, -3.58, 12.27, 12.16, 10.75, 9.49, 11.87, 13.02, 12.02, 9.73, 9.09, 7.76, 7.0, 9.12, 13.59, 13.59, 12.65, 11.06, 9.66, 8.28, 5.09, 6.34, 5.81, 5.65, 2.28, 2.5, 0.0, 2.89, 4.66, 1.58, 0.0, 0.0, 0.0, 9.48, 12.96, 8.85, 0.0, 0.0, -5.4, -10.84, -11.18, -11.18, -12.96, -14.3, -14.75, -15.2, -14.75, -14.16, -12.89, -11.92, -14.76, -14.76, -14.47, -14.11, -14.5, -13.85, -13.51, -12.98, -12.37, -11.8, -11.72, -10.79, -11.09, -10.79, -5.2, 0.0, 0.0, -11.62, -10.8, -10.79, -9.97, -11.2, -12.14, -13.41, -9.8, 0.0, 0.0, 3.39, 7.9, 11.62, 14.75, -0.0, -0.0, 0.0, 0.0, 0.0, 0.0, 0.0, -1.62, -4.32, -6.94, -9.06, -11.96, -13.83, -15.1, -14.5, -11.04, -7.11, 0.0, 10.75, 12.16, 10.75, 9.49, 11.87, 12.27, 12.65, 9.73, 9.09, 9.09, 7.0, 7.76, 10.75, 13.03, 13.59, 13.03, 12.22, 11.06, 8.68, 8.68, 7.98, 7.2, 7.2, 3.79, 2.5, 0.0, 0.0, 0.0, 3.3, 0.0, 0.0, 0.0, 0.0, 0.0, 0.0, 0.0, 0.0, -7.9, -11.18, -11.18, -12.52, -15.65, -16.54, -16.09, -15.2, -14.75, -13.86, -12.83, -12.04, -15.13, -15.13, -14.86, -14.5, -14.5, -13.85, -13.88, -13.23, -12.62, -11.69, -11.9, -11.35, -11.44, -10.01, -6.7, -5.2, -5.2, -8.53, -11.62, -10.8, -8.94, -10.0, -10.0, -10.38, -12.07, -12.96, 0.0, 4.4, 4.4, 11.18, -0.0, -9.8, -9.39, -11.06, -12.52, -3.39, -2.49, -2.6, -6.21, -7.34, -10.99, -13.59, -13.23, -11.66, -9.33, -6.73, -3.81, 0.0, 5.48, 7.59, 8.18, 7.82, 10.43, 11.52, 12.27, 11.33, 9.73, 9.09, 7.0, 7.0, 5.99, 11.87, 13.19, 13.56, 12.81, 12.37, 11.06, 11.06, 12.33, 12.64, 10.19, 7.6, 4.95, 3.58, 0.0, 0.0, -2.89, 0.0, 0.0, -1.96, -2.63, 0.0, 0.0, -8.22, 0.0, 0.0, -8.53, -11.62, -11.02, -15.04, -17.7, -16.99, -15.65, -14.75, -13.41, -13.41, -12.96, -12.35, -15.13, -14.86, -14.86, -14.5, -14.5, -14.2, -14.24, -13.59, -12.62, -12.37, -12.13, -11.21, -12.27, -10.37, -8.53, -8.53, -8.22, -6.7, -11.03, -11.21, -9.17, -8.85, -6.45, -6.45, -7.59, -8.53, 0.0, 0.0, 0.0, 7.27, 0.0, -9.3, -9.67, -11.2, -14.3, -12.79, -12.16, -9.8, -11.38, -13.61, -12.63, -10.1, -8.05, -5.46, -1.96, 0.0, 0.0, 1.77, 4.05, 4.81, 7.59, 7.36, 10.12, 11.52, 10.43, 9.44, 7.54, 7.76, 8.29, 6.17, 5.81, 11.44, 13.75, 13.81, 13.19, 14.03, 12.01, 11.7, 13.92, 14.22, 11.8, 6.64, 6.81, 5.51, 4.3, 0.0, -2.72, -4.52, -1.38, -1.9, -4.1, -5.8, -5.4, -10.0, -11.18, -10.4, -6.7, -9.3, -13.99, -17.19, -16.76, -15.43, -14.75, -13.41, -12.79, -13.23, -12.96, -12.35, -15.13, -14.86, -14.86, -14.5, -14.5, -14.2, -14.24, -13.59, -13.26, -13.02, -12.5, -11.57, -11.17, -10.37, -8.85, -9.66, -9.66, -8.53, -10.8, -11.91, -9.08, -9.42, -8.05, -6.0, -6.94, -8.53, -10.04, -11.45, -12.96, -12.07, 0.0, -10.28, -10.08, -10.47, -12.07, -13.79, -12.72, -11.53, -11.3, -11.72, -10.73, -11.17, -8.66, -3.93, -3.1, -1.47, 0.0, 0.0, 3.93, 4.52, 5.15, 7.13, 9.8, 10.12, 9.22, 8.18, 7.32, 8.18, 6.8, 4.24, 5.46, 11.99, 14.6, 14.75, 14.39, 14.4, 12.33, 10.59, 12.01, 11.16, 7.69, 6.36, 5.8, 5.94, 3.98, 2.05, 0.0, -4.81, 0.0, 0.0, -5.4, -11.03, -10.4, -10.4, -10.4, -9.97, -10.82, -13.26, -16.79, -17.19, -15.93, -15.43, -15.43, -12.71, -10.37, -11.99, -12.96, -11.87, -14.86, -14.86, -14.86, -14.5, -14.5, -14.2, -14.24, -14.24, -13.63, -12.62, -12.37, -11.53, -11.17, -9.17, -9.48, -9.67, -10.8, -10.01, -10.73, -11.91, -10.8, -11.16, -11.28, -9.96, -10.01, -9.3, -10.4, -11.84, -12.14, -10.18, -0.0, 0.0, -9.83, -9.39, -11.18, -12.96, -12.45, -11.16, -8.22, -8.37, -11.62, -11.6, -12.79, -10.75, -7.0, 0.0, 5.09, 6.8, 5.46, 2.28, 2.81, 5.15, 8.94, 9.22, 7.36, 7.13, 6.4, 6.4, 5.63, 4.38, 6.0, 11.99, 14.9, 15.87, 15.69, 13.76, 9.87, 6.34, 4.95, 2.94, 0.0, 0.0, 0.0, 0.0, 0.0, 0.0, 0.0, 0.0, 2.63, 1.9, 0.0, -10.37, -12.87, -13.57, -13.59, -15.19, -16.3, -16.74, -17.19, -17.19, -16.44, -17.33, -15.65, -9.48, -4.24, -12.96, -12.14, -12.04, -14.5, -14.5, -14.5, -14.5, -14.5, -14.2, -14.24, -13.88, -13.63, -12.62, -12.37, -11.8, -11.9, -10.73, -9.8, -8.53, -10.01, -9.48, -9.17, -7.51, -3.04, -5.6, -12.96, -12.03, -12.11, -11.45, -11.45, -11.87, -9.97, -7.9, -7.9, -10.4, -11.18, -10.41, -10.84, -11.12, -11.12, -10.6, -9.77, -8.22, -5.0, -8.53, -12.72, -11.9, 0.0, 16.09, 14.53, 10.3, 7.32, 4.52, 2.45, 6.9, 8.66, 8.66, 8.66, 8.66, 7.69, 6.2, 4.71, 3.14, 3.96, 11.16, 15.2, 15.18, 15.61, 13.59, 6.69, 1.94, 0.0, 0.0, 0.0, 0.0, -2.0, -3.39, -3.3, -2.89, 0.0, 3.68, 3.56, 1.58, 0.0, -8.18, -12.81, -14.3, -16.19, -17.91, -17.11, -15.36, -11.0, -14.18, -15.97, -15.97, -11.5, -4.38, -0.0, -8.85, -8.53, -11.12, -14.5, -14.5, -14.5, -14.5, -14.5, -14.2, -14.24, -13.88, -13.63, -13.26, -12.65, -12.23, -13.99, -11.99, -11.99, -10.37, -11.5, -10.47, -9.17, -5.6, 0.0, 0.0, 0.0, -11.09, -12.72, -11.62, -9.13, -8.38, -7.54, -8.58, -10.79, -12.07, -12.52, -11.91, -10.75, -9.89, -10.58, -10.52, -11.03, 0.0, 12.52, 12.52, 12.52, 9.48, 14.3, 13.86, 15.27, 9.42, 10.05, 9.49, 8.85, 9.17, 8.38, 7.69, 7.69, 7.69, 6.88, 5.8, 4.39, 4.39, 3.44, 8.43, 14.42, 15.65, 15.27, 12.01, 4.79, 2.0, 0.0, -3.58, -3.9, -4.54, -3.59, -4.5, -4.66, -3.93, 0.0, 0.0, 0.0, 0.0, 0.0, -3.58, -11.17, -13.19, -14.94, -15.19, -15.14, -4.01, 3.9, -6.8, -12.96, -11.6, -9.17, -7.44, -13.41, -3.96, -7.24, -8.53, -14.13, -14.5, -14.5, -14.5, -14.5, -14.2, -14.24, -13.88, -12.87, -13.26, -12.89, -12.89, -11.66, -11.75, -13.07, -12.72, -13.27, -13.27, -13.32, -12.3, -12.14, -11.2, -7.78, -8.05, -13.15, -11.84, -7.87, -8.22, -10.47, -11.45, -12.52, -14.3, -13.86, -12.07, -11.62, -11.4, -9.6, -8.0, -0.0, 12.52, 12.07, 0.0, 12.07, 11.62, 11.62, 12.96, 11.99, 10.12, 11.06, 13.42, 12.65, 10.43, 7.93, 7.69, 6.88, 8.31, 6.2, 4.55, 3.96, 2.72, 1.83, 6.14, 12.33, 13.39, 13.39, 12.33, 7.04, 5.09, 2.72, -4.52, -6.6, -6.16, -5.09, -4.62, -3.39, -3.81, -4.98, -3.96, -4.1, -2.64, -1.41, 0.0, -5.23, -12.22, -12.74, -11.16, -10.82, 0.0, 10.12, -12.96, -12.04, -10.73, -10.73, -11.6, -12.96, -10.41, -9.17, -8.85, -14.13, -14.13, -14.5, -14.5, -14.88, -14.61, -14.24, -13.51, -13.23, -13.26, -12.89, -12.52, -11.87, -11.9, -13.68, -13.28, -13.7, -13.96, -14.57, -14.68, -15.61, -15.6, -14.51, -11.72, -12.96, -8.93, -5.7, -5.46, -9.2, -12.27, -12.07, -9.83, -8.8, -9.83, -9.83, -11.28, -9.67, 0.0, -0.0, 0.0, -12.96, 0.0, 0.0, 12.07, 11.62, 11.62, 12.07, 12.14, 12.3, 13.01, 13.19, 9.66, 8.28, 7.2, 6.34, 7.4, 5.23, 3.01, 1.11, 0.0, 2.47, 9.2, 13.23, 14.94, 15.27, 13.96, 9.54, 8.0, 4.81, 0.0, -6.2, -8.18, -7.2, -6.34, -4.18, -3.68, -5.2, -7.54, -7.93, -6.8, -4.23, -2.87, 0.0, -5.37, -11.38, -10.43, -7.82, -2.98, 0.0, -13.41, -11.87, -12.35, -12.35, -12.27, -13.41, -13.88, -12.39, -11.5, -14.13, -14.13, -14.5, -14.5, -14.61, -14.61, -14.24, -13.51, -13.23, -13.23, -12.87, -12.52, -12.52, -12.22, -11.2, -10.92, -10.12, -10.41, -12.15, -13.35, -14.21, -14.72, -14.3, -15.65, -12.72, -3.96, -0.0, 3.15, -0.0, -6.44, -6.71, -0.0, 4.8, 2.49, -4.6, -9.6, -9.6, -0.0, -5.2, -8.53, 0.0, 12.07, 11.62, 12.07, 10.52, 10.08, 11.71, 12.52, 11.6, 9.8, 0.0, 0.0, 0.0, 0.0, 2.72, 2.38, 2.22, 0.0, 0.0, 0.0, 8.0, 15.72, 16.54, 15.87, 15.78, 13.59, 12.99, 12.08, 7.06, 2.4, -2.43, -6.2, -4.66, -2.98, -2.54, -3.19, -4.32, -8.85, -10.18, -9.39, -9.35, -5.65, -1.88, 0.0, 0.0, -3.77, -5.51, -6.8, -6.6, -11.53, -12.52, -11.62, -11.62, -11.28, -12.52, -12.96, -14.47, -14.11, -14.13, -14.13, -14.13, -14.88, -14.61, -14.61, -14.24, -13.88, -13.51, -12.87, -12.87, -12.52, -12.52, -12.16, -12.12, -11.18, -9.91, -8.68, -8.78, -9.8, -10.12, -11.2, -13.59, -14.75, -12.79, -3.36, 1.9, 3.73, 2.93, -0.0, -1.58, -0.0, 2.19, 4.15, 2.71, -0.0, -0.0, -0.0, -0.0, 5.2, 11.03, 11.62, 10.96, 9.54, 9.97, 10.41, 11.03, 10.8, 0.0, -11.99, -12.14, -11.99, -12.27, -11.68, -12.01, -11.0, -4.88, 0.0, -2.28, 0.0, 16.09, 16.31, 17.43, 16.09, 17.39, 11.16, 8.3, 12.42, 9.69, 6.88, 0.0, 0.0, -2.81, -2.28, -1.62, -3.19, -4.66, -7.2, -7.98, -9.61, -8.93, -10.33, -7.2, -7.4, 0.0, 0.0, -6.22, -9.92, -10.05, -7.36, -11.09, -10.4, -10.6, -11.62, -12.52, -13.41, -12.96, -13.86, -14.13, -14.13, -14.5, -14.88, -14.61, -14.61, -14.24, -13.88, -13.88, -13.51, -12.87, -12.52, -12.14, -12.49, -12.5, -12.33, -11.26, -9.67, -8.43, -7.76, -5.99, -4.18, -2.5, 0.0, 0.0, -3.69, -15.2, -0.0, 1.53, 1.17, -0.0, -0.0, -0.0, -0.0, 2.49, 3.39, -0.0, -0.0, 4.6, 7.59, 10.18, 9.97, 10.18, 9.97, 9.54, 9.97, 8.91, 7.9, 0.0, -12.52, -12.14, -11.84, -11.45, -11.21, -11.62, -11.87, -15.18, -8.6, -5.2, 13.86, 11.53, 14.84, 16.54, 16.99, 0.0, -11.7, 0.0, 0.0, 0.0, 5.53, 10.6, 5.42, 0.0, -3.82, -4.58, -5.81, -5.23, -5.51, -7.6, -7.6, -10.19, -11.7, -9.39, -9.12, -6.16, -7.4, -8.0, -10.17, -10.89, -8.51, -7.36, -5.2, -4.32, -3.04, -3.25, -6.0, -11.6, -12.96, -14.13, -14.13, -14.88, -14.88, -14.61, -14.97, -14.61, -14.24, -13.88, -13.51, -12.87, -12.14, -12.49, -12.49, -12.5, -12.78, -12.33, -10.77, -9.43, -7.99, -6.63, -4.8, -2.72, -1.94, -0.98, -1.11, -1.38, -2.09, 0.0, -0.0, -0.0, 1.45, -0.0, -0.0, 4.6, 7.27, 9.6, 8.8, 7.9, 9.33, 9.97, 10.73, 9.83, 9.33, 9.33, 9.33, 9.33, 9.2, 7.59, 0.0, -10.4, -9.3, -7.59, 0.0, 0.0, -7.59, -11.28, -11.53, -8.2, 12.33, 11.6, 9.17, 12.39, 14.3, -14.75, -15.2, -16.05, -14.13, -11.38, 9.0, 17.11, 12.87, 4.03, -2.45, -8.38, -10.33, -10.46, -9.2, -7.6, -5.37, -6.47, -8.74, -9.09, -7.79, -9.17, -10.75, -9.49, -10.05, -8.28, -9.92, -5.37, -4.24, -3.82, -2.45, 0.0, -4.1, -12.58, -12.58, -14.51, -14.51, -14.88, -14.88, -14.61, -14.97, -14.61, -14.61, -13.49, -13.14, -12.78, -12.49, -12.49, -12.5, -12.84, -12.45, -12.33, -11.35, -9.92, -8.97, -7.8, -5.65, -4.67, -2.65, -1.83, 0.0, 0.0, 0.0, 0.0, 0.0, 0.0, -0.0, 3.25, 4.8, 7.27, 8.4, 8.23, 9.2, 10.41, 9.75, 9.39, 9.39, 10.28, 9.83, 9.83, 8.91, 9.33, 9.75, 10.28, 10.28, 0.0, 0.0, 5.2, 9.6, 8.4, 0.0, -7.27, -9.67, 0.0, 11.06, 8.53, 0.0, 11.62, 12.07, 0.0, -12.3, -12.79, -15.2, -16.09, 19.67, 21.46, 16.79, 13.28, 4.55, -6.8, -14.66, -15.38, -11.27, -8.2, -3.59, 0.0, -3.59, -5.37, -4.05, -5.4, -6.98, -10.47, -8.1, -7.78, -6.2, -5.81, -4.81, -4.81, -2.2, 0.0, -2.37, -8.85, -8.85, -14.51, -14.51, -14.88, -14.88, -14.88, -14.97, -14.97, -14.61, -13.85, -13.49, -12.78, -12.49, -12.84, -12.5, -12.84, -12.45, -12.01, -11.86, -10.31, -9.67, -7.8, -6.47, -4.79, -2.72, -0.89, 0.0, 0.0, 0.0, 0.0, -1.07, -2.57, -2.09, 0.0, 12.07, 8.0, 8.05, 8.8, 9.96, 9.97, 9.54, 9.83, 8.94, 10.28, 8.94, 9.83, 9.83, 10.28, 10.28, 10.28, 10.28, 10.28, 10.73, 11.18, 7.59, 7.59, 0.0, 0.0, 4.8, 10.8, 11.6, 8.85, 5.0, 4.8, 9.6, 10.73, 0.0, -9.67, -11.62, -13.86, 0.0, 0.0, -0.0, 17.88, 14.86, -12.64, -18.78, -18.85, -13.91, -4.77, 0.0, 0.0, 0.0, -2.79, -4.18, -5.63, -5.98, -9.42, -7.78, -6.0, -5.15, -4.66, -6.0, -6.44, -4.1, -4.24, -3.82, -7.51, -7.51, -14.74, -14.51, -14.88, -14.88, -14.88, -14.97, -14.97, -14.61, -13.85, -13.49, -13.14, -12.49, -12.84, -12.5, -12.84, -12.12, -12.33, -11.86, -10.61, -9.17, -7.4, -6.47, -5.5, -2.8, 0.0, 0.0, 0.0, 0.0, -0.89, -1.88, -4.3, -5.64, -4.52, 8.22, 10.58, 9.55, 8.43, 8.55, 9.33, 9.83, 9.83, 9.83, 9.83, 10.28, 10.28, 10.28, 10.73, 10.28, 10.28, 10.28, 10.28, 10.28, 10.28, 10.28, 7.27, 4.6, 4.6, 7.59, 7.9, 5.0, 5.4, 0.0, 0.0, 10.73, 10.18, 8.8, 0.0, -9.75, -12.07, -13.99, -14.22, -13.91, -13.91, 0.0, -17.43, -15.77, -17.53, -18.78, -13.91, -5.94, -5.51, -8.0, -6.64, -6.0, -8.38, -8.85, -10.12, -5.8, -8.05, -7.36, -5.31, -4.1, -5.2, -7.54, -6.4, -4.1, -7.51, -7.51, -14.74, -14.51, -14.51, -14.51, -14.88, -14.61, -14.97, -14.61, -14.2, -13.85, -13.14, -12.84, -12.84, -12.84, -12.92, -13.96, -12.15, -11.7, -9.94, -8.28, -7.04, -7.08, -7.4, -6.31, -3.39, -2.0, -1.61, -2.72, -3.07, -3.81, -5.92, -7.58, -6.9, 0.0, 11.18, 10.58, 9.45, 8.93, 9.3, 10.18, 9.83, 10.28, 11.18, 11.18, 11.62, 10.73, 10.73, 10.28, 10.28, 10.28, 10.28, 10.28, 10.28, 10.28, 9.2, 7.27, 4.6, 5.0, 3.82, 0.0, 0.0, 0.0, 0.0, 9.83, 8.8, 7.81, 0.0, -7.27, -8.58, -12.79, -17.88, -17.99, -7.35, 0.0, 0.0, -16.05, -15.59, -15.69, -16.99, -17.43, -15.19, -13.95, -12.92, -12.57, -12.57, -12.57, -14.79, -12.57, -10.12, -10.47, -10.12, -6.9, -6.0, -8.85, -8.66, -7.36, -7.13, -7.13, -14.74, -14.51, -14.51, -14.51, -14.88, -14.88, -14.61, -14.61, -14.2, -13.85, -13.49, -12.84, -12.84, -13.18, -12.84, -12.56, -12.15, -11.94, -12.01, -10.15, -9.36, -8.86, -9.62, -10.0, -9.88, -8.68, -7.16, -6.36, -5.81, -6.21, -6.21, -7.51, -8.53, 0.0, 10.4, 10.73, 10.73, 10.58, 10.18, 10.14, 10.73, 10.73, 11.18, 10.96, 10.96, 11.62, 10.28, 10.28, 10.28, 9.83, 9.83, 10.28, 10.73, 11.18, 9.33, 8.18, 6.2, 5.95, 0.0, 0.0, 0.0, 0.0, 0.0, 10.73, 9.2, 7.27, 10.28, 0.0, 0.0, 2.63, 2.72, 1.96, 0.0, 0.0, -3.76, -8.74, -17.97, -19.51, -17.1, -16.99, -15.78, -15.36, -14.57, -14.18, -14.18, -12.22, -10.12, -3.14, -9.8, -10.01, -11.5, -8.66, -9.73, -10.65, -11.53, -10.75, -9.22, -9.22, -14.74, -14.51, -14.51, -14.51, -14.51, -14.51, -14.61, -14.61, -14.61, -14.2, -13.49, -12.84, -12.84, -13.18, -12.84, -12.45, -12.15, -11.88, -11.6, -12.63, -11.73, -9.87, -10.15, -10.54, -10.54, -10.47, -8.99, -7.69, -6.21, -3.82, -2.28, -5.2, -8.22, 0.0, 8.22, 10.0, 11.02, 10.73, 10.73, 11.18, 11.18, 11.18, 11.18, 11.91, 11.62, 12.07, 9.83, 10.28, 10.28, 10.28, 9.83, 10.28, 10.73, 11.18, 10.18, 8.55, 7.9, 7.9, 5.2, -7.9, -11.18, 0.0, -0.0, 5.0, 4.6, 4.8, 7.59, 12.07, 10.79, 9.8, 9.39, 7.58, 3.07, 0.0, -7.06, -11.58, -16.79, -21.92, -18.78, -18.41, -17.43, -14.94, -11.8, -8.05, -6.2, 0.0, 0.0, 2.63, 2.2, -1.98, -7.82, -9.48, -9.6, -10.91, -12.39, -12.81, -12.27, -12.27, -14.7, -14.51, -14.51, -14.51, -14.51, -14.51, -14.24, -14.61, -14.61, -14.24, -13.18, -12.84, -12.84, -13.18, -12.84, -12.84, -12.45, -11.79, -12.16, -12.09, -10.98, -10.34, -9.6, -9.89, -10.05, -9.37, -7.57, -5.99, -3.12, -1.17, 0.0, 0.0, 0.0, 2.82, 6.97, 7.9, 10.4, 11.18, 11.09, 11.18, 11.18, 11.18, 11.18, 11.95, 11.18, 10.73, 10.73, 9.83, 10.28, 10.28, 10.28, 10.73, 10.73, 11.18, 10.73, 10.6, 11.28, 12.14, 11.62, -0.0, -0.0, -0.0, 5.0, 5.0, 5.0, 7.9, 8.22, 10.8, 12.96, 13.19, 11.06, 12.07, 14.22, 5.85, -10.0, -10.81, -12.63, -14.66, -21.46, -19.51, -18.08, -16.31, -14.39, -8.43, 0.0, 0.0, 2.63, 0.0, -2.09, 0.0, -5.4, -9.48, -10.12, -10.99, -12.79, -12.79, -13.19, -13.19, -14.49, -14.49, -14.49, -14.51, -14.51, -14.24, -14.24, -14.24, -14.24, -14.24, -13.18, -12.84, -12.84, -12.84, -13.18, -12.84, -12.84, -12.12, -12.09, -12.01, -10.43, -9.94, -8.57, -8.31, -7.59, -8.05, -6.45, -4.8, -2.98, -1.02, 0.0, 0.0, 0.0, 3.68, 5.2, 7.26, 9.67, 10.68, 11.28, 11.28, 11.55, 11.53, 11.51, 11.51, 11.62, 11.18, 10.73, 9.39, 9.39, 10.28, 10.28, 10.73, 10.73, 11.18, 10.73, 10.73, 11.18, 12.96, 12.96, 4.2, -0.0, -0.0, -0.0, 5.2, 7.9, 10.0, 11.62, 11.18, 0.0, 0.0, 0.0, 0.0, 26.37, 13.86, -9.39, -9.24, -10.79, -10.1, -10.61, -18.65, -18.85, -16.76, -15.65, -15.18, -10.43, -6.2, -6.2, -7.36, -9.49, -9.92, -8.06, -10.12, -10.12, -11.44, -12.79, -12.27, -11.9, -11.9, -14.49, -14.49, -14.49, -14.49, -14.51, -14.24, -14.24, -14.24, -14.24, -13.95, -13.18, -12.84, -12.84, -12.84, -13.18, -12.84, -12.84, -11.7, -11.7, -11.59, -10.71, -9.78, -8.05, -7.54, -7.1, -6.94, -6.43, -5.49, -4.03, -2.01, -1.02, 0.0, 0.0, 1.55, 4.58, 6.2, 7.9, 9.7, 10.88, 11.28, 11.35, 11.28, 11.53, 11.51, 11.62, 11.18, 12.52, 11.18, 10.73, 11.18, 11.62, 11.18, 10.73, 10.73, 10.28, 10.28, 9.75, 11.45, 11.6, 11.62, -0.0, -0.0, -0.0, 5.2, 9.3, 11.45, 12.07, 12.52, 0.0, -11.18, -10.0, -0.0, 25.93, 28.16, 0.0, -13.15, -11.64, -9.96, -9.22, -6.8, -15.61, -17.2, -17.26, -16.54, -16.99, -16.31, -14.79, -15.59, -15.62, -12.64, -9.42, -9.48, -11.53, -13.86, -13.57, -12.27, -10.65, -10.65, -14.49, -14.49, -14.49, -14.49, -14.49, -13.88, -14.24, -14.24, -14.24, -13.95, -13.59, -12.84, -12.84, -12.84, -12.84, -12.84, -12.5, -11.7, -11.7, -10.83, -11.13, -10.61, -9.17, -8.28, -7.15, -6.94, -6.24, -5.48, -4.81, -3.8, -3.09, -1.1, 0.0, 0.0, 3.04, 4.58, 7.15, 8.59, 9.7, 10.88, 10.88, 11.28, 10.75, 11.06, 11.02, 10.73, 11.62, 10.73, 9.83, 9.83, 10.73, 12.52, 10.73, 9.6, 9.2, 9.2, 9.2, 8.8, -0.0, 0.0, 0.0, -9.39, -6.95, 7.59, 11.03, 11.45, 12.07, 12.07, 8.53, -8.22, -9.48, -13.02, 0.0, 12.39, 12.39, 0.0, -12.64, -11.06, -8.94, -8.05, -8.31, -15.78, -18.59, -20.12, -19.22, -18.33, -18.59, -18.05, -16.02, -13.99, -12.01, -4.66, 0.0, -6.6, -11.16, -10.82, -9.8, -9.8, -14.11, -14.11, -14.11, -14.49, -14.49, -14.26, -13.88, -13.88, -14.24, -13.95, -13.59, -13.18, -12.84, -12.84, -12.84, -12.5, -12.5, -11.7, -11.7, -11.25, -11.13, -10.61, -10.05, -8.77, -7.67, -7.15, -6.24, -6.05, -5.63, -4.81, -3.93, -2.11, -1.11, 0.0, 1.38, 2.93, 5.77, 7.15, 9.09, 9.7, 10.46, 10.88, 10.75, 10.75, 10.58, 10.58, 11.62, 10.28, 9.83, 9.83, 11.18, 11.02, 12.52, 11.45, 10.0, 9.6, 9.2, 8.8, -0.0, 0.0, -8.53, -5.4, -4.2, 9.83, 11.18, 11.45, 11.87, 12.52, -9.17, -12.52, -8.53, -10.12, -12.01, 0.0, 0.0, 0.0, -5.31, -11.17, -8.1, -7.26, -8.38, -10.82, -16.76, -18.59, -16.82, -17.43, -16.37, -15.04, -14.55, -15.2, -16.99, 0.0, 0.0, -5.81, -7.13, -10.12, -8.66, -8.66, -14.11, -14.11, -14.11, -14.49, -14.26, -14.26, -14.26, -13.88, -13.59, -13.59, -13.59, -13.18, -12.84, -13.23, -12.84, -12.84, -12.5, -12.09, -11.7, -11.25, -11.25, -10.83, -10.33, -9.37, -8.53, -7.67, -7.15, -6.24, -5.63, -4.97, -3.94, -3.53, -2.32, -1.29, 0.0, 0.0, 3.44, 6.7, 8.53, 9.67, 9.7, 10.68, 10.4, 10.18, 10.14, 11.02, 11.18, 10.28, 9.83, 9.83, 10.73, 11.18, 10.14, 9.55, 9.3, 7.59, 4.8, 4.6, 4.2, -0.0, 0.0, -3.53, 0.0, 3.39, 11.2, 11.62, 12.07, 0.0, -12.96, -12.96, -11.6, -11.5, -13.19, -15.19, 0.0, 0.0, 0.0, -10.12, -8.1, -8.53, -8.22, -9.17, -12.27, -15.65, -17.19, -17.88, -16.82, -15.65, -15.2, -13.19, -14.9, -16.31, -8.97, -8.51, -9.49, -8.94, -8.94, -8.94, -14.46, -14.46, -14.11, -14.49, -14.26, -14.26, -14.26, -14.26, -13.88, -13.59, -13.59, -13.59, -13.59, -13.59, -13.59, -12.5, -12.5, -12.09, -11.7, -11.25, -11.25, -11.25, -10.33, -10.05, -9.52, -8.29, -7.15, -7.15, -6.6, -5.99, -4.38, -3.65, -2.63, -1.43, 0.0, 0.0, 3.44, 6.94, 8.53, 9.42, 9.67, 10.4, 10.0, 9.75, 9.33, 10.58, 10.28, 10.28, 9.83, 10.28, 11.18, 10.73, 10.58, 9.55, 9.2, 8.22, 5.0, -0.0, -0.0, -0.0, 0.0, 0.0, 0.0, 2.93, 8.22, 12.52, 0.0, 0.0, -12.07, -12.96, -13.57, -11.44, -9.48, -13.44, -10.75, -0.0, -16.75, -10.66, -8.31, -9.17, -8.53, -8.22, -8.91, -10.01, -13.41, -15.87, -15.04, -13.42, -11.06, -13.19, -14.55, -16.09, -12.92, -12.01, -11.7, -11.06, -8.43, -8.43, -14.46, -14.46, -14.11, -13.89, -14.26, -14.26, -14.26, -14.26, -14.26, -13.59, -13.59, -13.59, -13.59, -13.59, -13.59, -12.5, -12.5, -12.5, -11.7, -11.7, -11.25, -10.95, -10.47, -10.47, -9.25, -9.25, -8.43, -7.54, -6.6, -6.18, -5.5, -3.98, -2.72, -2.91, -1.61, 0.0, 3.44, 5.6, 7.54, 9.42, 9.08, 9.97, 10.6, 11.71, 11.71, 10.14, 9.39, 9.83, 10.28, 10.28, 11.18, 10.73, 10.08, 10.08, 9.96, 8.93, 5.4, -0.0, -0.0, -0.0, -0.0, 0.0, 0.0, 3.96, 5.4, 12.96, 0.0, 0.0, -11.62, -11.62, -13.86, -8.85, -5.46, -8.59, -14.3, -12.96, -19.59, -18.24, -15.02, -12.01, -8.85, -7.68, -8.37, -7.41, -7.78, -13.41, -11.16, -12.57, -15.27, -15.05, -16.09, -16.99, -16.41, -13.97, -13.05, -12.01, -10.59, -10.59, -14.46, -14.46, -14.46, -13.89, -14.26, -14.26, -14.26, -14.26, -14.26, -13.59, -13.59, -13.59, -13.59, -13.59, -13.26, -12.92, -12.5, -12.5, -11.7, -11.38, -10.95, -10.95, -10.61, -10.61, -10.18, -9.39, -8.83, -8.22, -7.73, -6.18, -5.5, -4.89, -3.98, -2.91, -1.61, 0.0, 2.06, 5.6, 7.54, 8.53, 9.42, 9.97, 10.79, 10.52, 11.18, 11.62, 11.18, 10.28, 10.28, 11.18, 11.18, 10.28, 10.08, 10.08, 10.41, 9.6, 8.18, 3.53, -0.0, -0.0, -0.0, 0.0, 0.0, 0.0, 0.0, 0.0, -0.0, -0.0, -0.0, -9.83, -10.41, -11.5, -7.98, -6.31, -8.03, -13.59, -16.37, -17.43, -17.78, -14.22, -14.86, -10.96, -10.03, -8.37, -5.64, -7.93, -13.44, -12.79, -14.61, -15.99, -15.55, -15.65, -15.65, -16.33, -14.75, -14.51, -13.39, -13.39, -14.46, -14.46, -14.46, -13.89, -13.89, -14.26, -14.26, -14.26, -13.89, -13.63, -13.59, -13.59, -13.59, -13.59, -13.26, -12.92, -12.16, -12.5, -12.5, -11.7, -10.95, -11.06, -10.61, -10.61, -10.31, -9.82, -8.57, -8.4, -6.78, -6.6, -5.67, -4.89, -4.11, -3.01, -1.66, 0.0, 2.06, 3.96, 6.44, 8.53, 8.53, 9.66, 10.79, 10.96, 10.73, 12.07, 12.07, 10.73, 10.28, 11.18, 10.73, 10.28, 9.97, 10.41, 10.41, 10.41, 9.97, 11.03, 7.59, -0.0, -0.0, 0.0, 0.0, -11.62, -12.07, -11.62, -11.62, -11.6, -12.07, -8.55, -8.63, -10.75, -13.42, -5.53, -5.1, -7.4, -8.77, -10.43, -16.05, -18.26, -16.83, -14.59, -12.82, -11.17, -8.51, -6.4, -7.36, -12.79, -14.3, -14.75, -14.66, -14.64, -15.2, -15.65, -15.61, -15.07, -14.75, -14.75, -14.07, -14.07, -14.26, -14.26, -13.89, -13.89, -13.89, -13.89, -13.89, -13.63, -13.23, -13.59, -13.59, -13.59, -13.26, -12.92, -12.57, -12.16, -12.5, -11.79, -11.47, -11.06, -10.61, -10.31, -9.82, -9.82, -9.53, -9.16, -8.29, -6.64, -6.85, -5.92, -5.31, -4.38, -3.36, 0.0, 0.0, 4.1, 6.44, 7.51, 9.66, 9.66, 11.28, 11.62, 11.18, 11.18, 11.18, 10.73, 10.73, 11.18, 10.73, 9.97, 10.41, 10.41, 10.08, 9.97, 10.84, 11.18, 10.73, 9.2, -0.0, -0.0, -8.22, -5.0, -8.22, 0.0, 0.0, -11.62, -12.52, -11.21, -8.23, -10.73, -13.86, -10.41, -6.3, -5.29, -5.81, -6.97, -9.8, -12.64, -11.45, -12.64, -12.01, -11.88, -10.3, -8.93, -6.35, -4.05, -3.47, -11.53, -13.86, -13.75, -14.64, -15.2, -15.97, -15.18, -15.07, -15.07, -14.07, -14.07, -13.87, -14.26, -14.26, -13.89, -13.89, -13.89, -13.89, -13.63, -13.63, -13.23, -13.59, -13.59, -13.26, -12.92, -12.92, -12.57, -12.16, -12.16, -11.47, -11.06, -10.31, -10.75, -10.27, -9.97, -9.97, -9.16, -8.78, -7.54, -6.9, -6.2, -5.63, -4.38, -3.36, 0.0, 0.0, 2.2, 4.81, 7.51, 8.85, 10.41, 11.71, 11.62, 11.18, 11.18, 11.18, 10.73, 10.73, 10.73, 10.28, 9.97, 10.84, 10.41, 9.97, 10.41, 10.41, 10.73, 10.28, 10.73, 7.59, -0.0, -0.0, -0.0, -0.0, 0.0, 0.0, 0.0, -8.22, -9.17, -5.4, 0.0, -11.03, -14.94, -11.09, -5.85, -8.2, -10.43, 0.0, 0.0, 0.0, -2.79, -3.51, -6.64, -8.25, -8.03, -7.2, -6.17, -2.81, -3.25, -9.17, -13.41, -13.72, -14.19, -14.3, -15.08, -14.75, -14.75, -14.07, -14.07, -13.87, -13.87, -14.26, -14.26, -13.89, -13.89, -13.63, -13.63, -13.63, -13.23, -13.23, -13.59, -12.92, -12.92, -12.57, -12.57, -12.57, -12.22, -11.88, -11.17, -10.75, -10.75, -9.97, -9.97, -9.67, -9.16, -9.44, -8.41, -6.9, -6.51, -5.45, -4.38, -3.36, -1.96, 0.0, 0.0, 2.63, 5.8, 9.17, 10.41, 11.87, 12.07, 11.62, 11.18, 11.18, 10.73, 10.73, 10.73, 10.18, 10.84, 9.6, 9.2, 9.97, 9.97, 10.28, 9.83, 10.28, 10.73, 12.52, 0.0, 0.0, 0.0, 0.0, 0.0, 0.0, 0.0, 0.0, 0.0, 0.0, 0.0, -8.85, -12.37, -16.75, -13.34, 0.0, 10.66, 7.8, 4.79, 0.0, 0.0, -2.4, -4.67, -6.69, -6.66, -6.66, -6.8, -7.36, -6.0, -3.96, -8.85, -12.52, -13.31, -13.34, -14.64, -15.08, -15.08, -13.87, -13.87, -13.87, -13.87, -13.87, -14.26, -14.26, -13.89, -13.63, -13.63, -13.63, -13.63, -13.23, -13.59, -13.63, -12.92, -12.57, -12.57, -12.57, -12.57, -11.88, -11.17, -11.17, -10.75, -9.97, -10.43, -10.12, -10.12, -9.62, -9.06, -8.2, -6.73, -6.51, -6.0, -4.71, -3.36, -1.96, 0.0, 2.63, 6.0, 7.44, 9.17, 11.2, 12.07, 12.07, 11.62, 11.18, 10.6, 10.6, 10.18, 10.18, 9.3, 9.6, 9.2, 10.41, 9.75, 9.83, 9.83, 9.83, 10.28, 9.83, 11.62, 10.73, 7.9, 0.0, 0.0, 0.0, 0.0, 0.0, -12.07, -12.52, -13.86, -10.12, -10.3, -12.95, -8.45, 4.03, 11.43, 10.9, 6.75, 0.0, -2.11, -4.3, -5.99, -5.49, -5.04, -6.1, -5.81, -6.9, -7.51, -8.85, -5.6, -11.2, -12.52, -12.88, -12.91, -14.75, -14.75, -13.49, -13.49, -13.87, -13.87, -13.87, -13.87, -14.26, -14.26, -13.63, -13.63, -13.63, -13.63, -13.63, -13.63, -13.63, -13.63, -12.57, -12.57, -12.57, -12.57, -11.88, -11.17, -11.17, -10.87, -10.43, -10.43, -10.12, -9.62, -9.62, -9.57, -8.2, -7.93, -7.34, -6.0, -4.71, -3.25, -3.68, 0.0, 0.0, 4.24, 6.0, 9.17, 12.96, 12.52, 12.07, 12.07, 10.4, 11.03, 10.6, 10.6, 8.93, 8.93, 8.93, 8.93, 9.75, 9.33, 9.83, 9.83, 9.83, 10.28, 10.28, 8.94, 10.73, 10.28, 0.0, 0.0, 0.0, 0.0, 0.0, 0.0, -12.96, -12.96, -11.06, -5.96, -5.52, -4.23, 2.16, 6.91, 6.79, 2.18, -2.22, -4.54, -4.52, -4.81, -4.24, -3.56, -5.11, -5.6, -5.6, -8.1, -10.37, -9.17, -9.17, -12.3, -12.52, -12.86, -13.86, -13.86, -13.49, -13.49, -13.87, -13.87, -13.87, -13.87, -14.26, -14.26, -14.03, -13.63, -13.63, -13.63, -13.63, -13.63, -13.63, -13.63, -12.98, -12.98, -12.98, -12.98, -12.3, -11.95, -11.6, -10.87, -10.43, -10.43, -10.58, -10.12, -10.12, -9.57, -9.5, -8.78, -7.58, -6.2, -6.2, -5.28, -3.68, -2.2, 0.0, 0.0, 0.0, 0.0, 0.0, 0.0, 0.0, -0.0, 10.8, 10.4, 10.4, 10.0, 7.9, 8.93, 8.93, 8.93, 9.33, 8.8, 9.83, 9.39, 9.83, 9.83, 9.83, 9.39, 10.28, 0.0, 0.0, 0.0, 0.0, 0.0, 0.0, 0.0, 0.0, -12.96, -11.06, 0.0, -2.09, -3.51, -4.87, -5.37, -7.07, -7.07, -6.91, -5.51, -5.64, -4.81, -6.21, -5.8, -4.71, -5.11, -7.19, -8.1, -10.37, -9.48, -6.0, -9.48, -12.96, -12.96, -13.28, -13.34, -13.49, -13.49, -13.49, -13.87, -13.87, -13.87, -13.87, -13.87, -14.03, -13.63, -13.63, -13.26, -13.26, -13.26, -13.63, -13.26, -13.26, -12.98, -12.98, -12.98, -12.3, -12.3, -11.6, -10.87, -10.43, -10.58, -10.58, -10.12, -10.12, -10.12, -9.5, -8.78, -8.58, -7.58, -6.2, -6.88, -6.0, -2.63, 0.0, 0.0, 0.0, 0.0, 0.0, 0.0, 0.0, -0.0, 5.4, 10.8, 10.4, 7.9, 7.9, 7.59, 7.59, 7.27, 8.8, 8.8, 9.39, 9.39, 9.39, 9.83, 9.83, 9.39, 10.73, 0.0, 0.0, 0.0, 0.0, 0.0, 10.73, 11.18, 0.0, -12.96, -14.75, -4.23, -2.4, -4.47, -7.82, -10.1, -11.57, -11.54, -8.43, -5.64, -5.64, -5.48, -7.13, -6.0, -6.88, -6.88, -7.44, -8.38, -10.73, -9.48, -7.44, -6.0, -11.99, -12.96, -13.41, -13.28, -13.49, -13.49, -13.49, -13.49, -13.87, -13.87, -13.87, -13.87, -13.65, -13.65, -13.65, -13.26, -13.63, -13.63, -13.63, -13.63, -13.63, -12.98, -12.98, -12.62, -12.3, -11.95, -11.6, -10.87, -10.92, -10.58, -10.58, -10.12, -10.12, -10.63, -10.12, -9.42, -8.58, -7.58, -8.31, -7.1, -6.2, -4.98, -3.25, -4.24, 0.0, 0.0, 0.0, -12.07, 0.0, -0.0, 5.4, 5.4, 5.2, 5.0, 5.0, 7.59, 7.59, 7.27, 8.8, 8.8, 6.64, 8.94, 9.39, 9.39, 9.83, 9.39, 7.6, 9.83, 0.0, 0.0, 0.0, 0.0, 10.73, 11.18, 0.0, -8.22, -13.86, -13.02, 0.0, 3.33, 0.0, -10.3, -9.5, -7.95, -6.65, -4.24, -3.68, -2.2, -2.72, -2.81, -3.93, -4.66, -4.52, -5.15, -8.31, -8.31, -6.2, -6.2, -11.99, -12.72, -12.96, -13.41, -13.49, -13.49, -13.49, -13.49, -13.49, -13.49, -13.87, -13.87, -13.65, -13.65, -13.65, -13.63, -13.63, -13.63, -13.63, -13.63, -13.63, -12.98, -12.98, -13.02, -12.37, -12.37, -11.69, -11.33, -10.92, -10.58, -11.07, -10.63, -10.63, -10.63, -10.12, -9.8, -9.42, -9.31, -8.31, -7.93, -6.2, -5.15, -6.2, -4.38, -6.0, -9.17, -12.96, -12.52, -8.85, -0.0, 5.2, 5.0, -0.0, -0.0, 4.8, 4.6, 4.6, 4.6, 4.4, 6.64, 6.64, 8.0, 8.0, 8.91, 8.91, 9.39, 10.73, 9.83, 9.83, 10.28, 0.0, 0.0, 7.27, 11.18, 0.0, -8.22, -12.96, -13.44, -7.0, 11.41, 21.49, -8.62, -10.73, -7.69, -5.48, 0.0, 0.0, 2.0, 0.0, 0.0, 0.0, 0.0, -2.09, -2.35, -5.31, -5.31, -6.2, -4.38, -11.99, -12.3, -12.58, -12.58, -13.49, -13.49, -13.49, -13.49, -13.49, -13.49, -13.87, -13.87, -13.65, -13.65, -14.03, -14.03, -13.63, -13.63, -13.63, -13.63, -13.63, -12.98, -13.39, -13.02, -12.37, -12.37, -11.69, -11.33, -11.33, -11.42, -11.07, -10.63, -10.63, -10.63, -10.69, -10.12, -10.12, -9.31, -9.02, -9.16, -8.94, -8.58, -7.93, -9.8, -12.39, -9.48, -12.96, -12.96, -12.96, -0.0, -0.0, -0.0, -0.0, -0.0, -0.0, -0.0, 4.4, 4.4, 4.2, 6.64, 6.32, 8.0, 8.0, 8.48, 8.91, 8.67, 8.06, 9.83, 9.83, 9.83, 10.28, 10.28, 9.2, 7.9, 0.0, -10.0, -12.96, -12.52, -14.75, 0.0, 15.49, 10.04, 0.0, -5.2, 0.0, 2.94, 3.98, 3.28, 1.58, 0.0, 0.0, 0.0, -1.83, -3.47, -3.93, -4.52, -5.15, -7.44, -12.96, -12.96, -12.96, -12.96, -13.43, -13.43, -13.49, -13.49, -13.49, -13.49, -13.87, -13.87, -13.65, -13.65, -14.03, -14.03, -14.03, -13.63, -13.63, -13.63, -13.65, -13.65, -13.39, -12.65, -12.37, -12.0, -11.69, -11.33, -11.8, -11.42, -11.07, -11.07, -10.63, -10.63, -10.69, -10.12, -10.12, -10.12, -9.8, -9.16, -8.94, -8.58, -10.12, -10.12, -12.39, -13.41, -13.41, -12.96, -12.96, -0.0, -0.0, -0.0, -0.0, -0.0, -0.0, -0.0, -0.0, -0.0, -0.0, -0.0, 6.32, 6.01, 7.6, 8.48, 8.48, 8.67, 8.67, 10.73, 9.83, 9.83, 10.28, 10.73, 9.2, 7.9, 0.0, -9.6, -11.62, -12.71, -13.01, -10.75, 0.0, 3.9, 5.07, 8.62, 10.8, 11.56, 8.67, 4.93, 1.51, 0.0, -1.56, -3.2, -4.52, -4.52, -3.36, -4.38, -5.15, 0.0, 0.0, -12.96, -12.96, -12.96, -13.43, -13.43, -13.1, -13.49, -13.49, -13.49, -13.49, -13.49, -13.87, -13.65, -13.65, -13.65, -14.03, -13.65, -13.65, -13.65, -13.65, -13.27, -13.02, -12.65, -12.0, -12.0, -11.69, -12.13, -11.8, -11.07, -11.07, -11.07, -11.07, -10.63, -11.17, -10.69, -10.77, -10.12, -10.86, -10.12, -10.12, -10.12, -10.12, -11.9, -13.15, -13.86, -13.41, -12.96, -12.96, -0.0, -0.0, -0.0, -0.0, -0.0, -0.0, -0.0, -0.0, -0.0, -0.0, -0.0, 6.01, 5.69, 5.69, 6.01, 7.07, 8.0, 8.0, 8.24, 10.73, 9.83, 9.83, 8.4, 9.2, 7.59, 0.0, -9.2, -10.84, -11.2, -11.16, -6.4, -3.9, 0.0, 0.0, 9.8, 16.83, 16.63, 11.6, 7.49, 3.31, 0.0, -1.69, -3.49, -4.81, -6.2, -5.31, -3.04, -9.17, 0.0, 0.0, 0.0, 0.0, 0.0, -13.43, -13.43, -13.43, -13.1, -13.49, -13.1, -13.49, -13.49, -13.49, -13.87, -13.87, -13.65, -13.65, -13.65, -13.65, -13.27, -13.27, -13.27, -12.65, -12.65, -12.79, -12.41, -12.13, -12.13, -11.44, -11.07, -11.07, -11.07, -11.07, -11.17, -11.17, -10.69, -10.77, -10.77, -10.86, -10.99, -10.12, -10.12, -11.44, -11.9, -13.15, -13.41, -13.41, -12.96, -12.96, -12.52, -8.53, -5.4, -5.2, -5.2, -0.0, -0.0, -0.0, -0.0, 6.95, -0.0, 6.32, 6.01, 5.69, 6.7, 7.07, 7.6, 8.0, 8.4, 8.48, 10.28, 9.83, 6.32, 6.95, 7.27, -10.28, -9.6, -10.4, -8.85, 0.0, 0.0, 0.0, 0.0, 0.0, 8.6, 16.93, 17.56, 11.27, 6.26, 3.45, 0.0, -3.98, -5.51, -7.0, -6.6, -4.24, 0.0, -12.52, -12.52, 0.0, 0.0, 0.0, 0.0, -13.43, -13.43, -13.43, -13.43, -13.43, -13.43, -13.43, -13.49, -13.49, -13.49, -13.49, -13.49, -13.27, -13.27, -13.27, -13.27, -13.27, -12.89, -12.65, -13.03, -12.79, -12.41, -11.76, -11.76, -11.44, -11.07, -11.07, -11.07, -11.57, -11.17, -11.17, -11.29, -11.29, -11.44, -10.86, -10.99, -11.17, -12.27, -12.79, -12.39, -13.15, -13.41, -13.41, -12.96, -12.96, -12.52, -8.53, -5.4, -5.2, -5.2, -0.0, -0.0, -0.0, -0.0, 6.95, 6.95, 6.32, 6.01, 7.2, 6.7, 6.7, 7.6, 7.6, 8.0, 7.44, 9.83, 9.39, 9.39, -0.0, -0.0, -10.28, -11.18, -11.62, 0.0, 0.0, 0.0, 0.0, 0.0, 5.09, 10.33, 12.02, 12.42, 10.43, 6.94, 0.0, -2.84, -4.91, -6.16, -5.48, 0.0, 0.0, 0.0, -8.53, -12.07, -12.07, 0.0, 0.0, 0.0, -13.43, -13.43, -13.43, -13.04, -13.43, -13.43, -13.43, -13.43, -13.1, -13.49, -13.49, -13.49, -13.49, -13.27, -13.27, -12.89, -12.89, -12.89, -13.03, -13.03, -12.65, -12.41, -11.76, -11.76, -11.44, -11.44, -11.07, -11.57, -11.57, -11.17, -11.17, -11.72, -11.29, -11.44, -11.44, -11.64, -11.9, -12.27, -12.87, -13.44, -13.01, -13.41, -12.96, -12.96, -12.96, -11.2, -10.8, -8.53, -5.2, -5.2, -5.0, -0.0, -0.0, -0.0, 7.27, 6.95, 6.64, 6.32, 7.6, 5.69, 6.32, 7.2, 6.79, 7.15, 7.44, 7.27, 10.28, 9.83, 6.95, -0.0, -7.27, -10.73, -11.62, 0.0, 0.0, 0.0, 0.0, 0.0, 6.6, 11.06, 8.51, 9.0, 13.57, 8.91, -18.97, -12.87, -8.74, -6.67, -3.14, 0.0, 0.0, -3.82, -5.2, -7.9, -11.18, -10.73, -10.73, -10.73, -13.04, -13.04, -13.04, -13.04, -13.04, -13.04, -13.04, -13.43, -13.43, -13.1, -13.1, -13.1, -13.1, -12.89, -12.89, -12.89, -12.89, -13.25, -13.03, -12.65, -12.65, -12.03, -12.03, -11.76, -11.44, -11.44, -11.57, -11.57, -11.57, -11.17, -11.17, -12.09, -11.64, -12.27, -11.44, -11.64, -11.9, -12.39, -12.87, -13.15, -13.01, -12.96, -12.96, -12.96, -12.52, -11.87, -10.8, -8.53, -8.22, -5.2, -5.0, -5.0, -0.0, -0.0, -0.0, -0.0, 6.95, 6.64, 7.6, 7.2, 6.7, 6.8, 6.44, 6.01, 5.1, 4.0, 6.95, 8.8, 8.8, -0.0, -0.0, -7.27, -7.9, -12.07, 0.0, 0.0, 0.0, 0.0, 10.12, 10.43, 9.39, 11.7, 16.74, -0.0, -27.72, -19.99, -11.99, -9.2, -6.97, -2.06, -1.98, -2.82, -5.95, -8.93, -9.75, -9.83, -9.83, -9.83, -13.04, -13.04, -13.04, -13.04, -13.04, -13.04, -13.04, -13.04, -13.04, -13.43, -13.1, -13.1, -13.1, -13.1, -12.89, -13.27, -13.25, -13.25, -12.65, -12.65, -12.27, -12.42, -12.42, -11.76, -11.44, -11.9, -11.57, -11.57, -11.57, -11.17, -11.52, -12.09, -12.09, -12.27, -11.44, -11.64, -12.42, -12.39, -13.15, -13.15, -13.41, -12.96, -12.96, -12.52, -12.14, -11.87, -10.04, -10.04, -8.22, -8.22, -8.22, -5.0, -5.0, -0.0, -0.0, -0.0, 3.11, 4.2, 6.32, 6.01, 6.7, 6.32, 6.08, 4.83, 4.14, 2.83, 4.2, 9.2, 9.75, 9.2, -0.0, 0.0, 0.0, 0.0, 0.0, 0.0, 0.0, 0.0, 9.8, 10.43, 8.18, 14.75, 7.0, -0.0, -25.87, -19.67, -15.2, -10.58, -10.18, -8.73, -6.45, -5.2, -6.71, -10.18, -10.28, -9.83, -9.83, -9.83, -13.04, -12.64, -12.64, -12.64, -12.64, -12.64, -12.64, -13.04, -13.04, -13.04, -13.04, -12.72, -13.1, -13.49, -13.27, -12.89, -13.25, -12.86, -12.65, -12.27, -12.62, -12.42, -12.42, -12.18, -12.18, -11.9, -11.57, -11.57, -11.93, -11.93, -12.09, -12.09, -12.09, -12.27, -12.5, -12.13, -13.15, -13.32, -13.15, -13.23, -13.41, -12.96, -12.96, -12.52, -12.14, -11.71, -10.04, -10.04, -9.67, -8.22, -8.22, -8.22, -5.0, -0.0, -0.0, -0.0, 2.39, 2.97, 2.83, 6.32, 7.07, 6.7, 5.37, 4.56, 2.82, 2.66, 2.97, 4.2, 6.95, 9.2, 10.73, 10.73, 7.27, 9.83, 11.18, 0.0, 0.0, 0.0, 0.0, 6.2, 10.12, 11.9, 7.36, 7.6, -26.45, -19.59, -17.1, -12.07, -11.09, -10.6, -9.3, -7.9, -8.22, -11.18, -10.41, -9.33, -9.33, -9.33, -12.64, -12.64, -12.64, -12.64, -12.64, -12.64, -12.64, -12.64, -12.64, -13.04, -13.43, -13.43, -13.49, -13.1, -12.89, -13.25, -12.86, -12.86, -12.47, -12.62, -12.62, -12.42, -12.42, -12.18, -12.18, -11.9, -11.9, -11.93, -11.93, -12.45, -12.09, -12.09, -12.65, -12.27, -12.5, -12.79, -12.98, -13.32, -12.89, -13.23, -12.96, -12.96, -12.52, -12.52, -12.27, -11.71, -10.8, -10.8, -10.04, -9.67, -8.22, -8.22, -5.2, -0.0, -0.0, 2.49, 2.39, 2.28, 2.83, 4.96, 6.01, 6.7, 5.69, 4.56, 2.82, 2.4, -0.0, -0.0, -0.0, 4.2, 6.95, 10.28, 7.59, 9.2, 10.28, 11.18, 0.0, 0.0, 0.0, 5.8, 13.41, 6.2, 7.59, 27.27, -19.6, -16.44, -17.02, -14.75, -11.95, -12.01, -11.21, -11.12, -9.97, -11.62, -9.6, -8.55, -8.55, -8.55, -12.25, -12.25, -12.25, -12.25, -12.64, -12.64, -12.64, -12.64, -13.04, -13.43, -13.43, -13.43, -13.43, -13.43, -13.43, -12.86, -12.86, -12.86, -12.47, -12.62, -12.62, -12.62, -12.42, -12.18, -12.18, -12.27, -12.27, -11.93, -11.93, -12.45, -12.45, -12.09, -12.65, -12.27, -12.5, -12.79, -12.98, -13.44, -12.89, -13.28, -12.96, -12.96, -12.52, -12.52, -12.52, -11.84, -11.71, -10.8, -10.8, -10.04, -10.04, -8.53, -8.22, -0.0, -0.0, 4.6, 3.11, 2.28, 2.17, 2.83, 4.71, 5.69, 5.37, 3.4, 2.82, 1.25, 1.07, -0.0, -0.0, -0.0, -0.0, -0.0, 0.0, 10.28, 10.28, 10.73, 11.62, 12.07, 8.85, 11.2, 9.17, 4.38, 12.96, 26.37, 26.82, -6.93, -12.33, -13.15, -12.07, -11.51, -10.96, -10.27, -11.18, -10.0, -9.6, -8.23, -8.23, -8.23, -12.25, -12.25, -12.25, -12.25, -12.25, -12.64, -12.64, -13.04, -13.04, -13.04, -13.04, -13.43, -13.04, -13.04, -13.04, -12.86, -12.86, -12.86, -13.19, -12.62, -13.02, -13.02, -12.81, -12.56, -12.56, -12.27, -12.65, -12.65, -12.45, -12.45, -12.45, -12.95, -12.27, -12.27, -12.5, -12.66, -13.15, -13.44, -13.01, -13.28, -12.83, -12.96, -12.52, -12.52, -12.52, -11.84, -11.84, -10.8, -10.8, -10.04, -10.04, -8.53, -8.22, -0.0, -0.0, 7.27, 4.4, 2.28, 2.17, 2.17, 2.69, 3.6, 5.37, 4.22, 1.95, 1.32, 1.14, -0.0, -0.0, -0.0, -0.0, -0.0, -0.0, -0.0, 6.95, 9.83, 10.73, 0.0, 12.52, 12.52, 8.85, 4.24, 9.66, 22.9, 27.27, 9.2, -0.0, -8.53, -10.73, -11.18, -11.02, -11.62, -5.2, -7.9, -8.94, -7.87, -7.87, -7.87, -12.25, -12.25, -12.25, -12.25, -12.64, -12.47, -12.47, -12.47, -13.04, -13.04, -13.04, -13.04, -13.04, -13.04, -13.04, -13.04, -12.86, -12.86, -13.19, -13.02, -13.02, -13.02, -12.81, -12.94, -12.94, -12.94, -12.65, -12.27, -12.45, -12.45, -12.45, -12.56, -12.27, -12.27, -12.79, -12.66, -13.15, -13.09, -13.01, -12.86, -12.86, -12.96, -12.52, -12.52, -12.52, -11.91, -11.84, -11.84, -11.71, -11.45, -10.04, -8.53, -5.2, -0.0, -0.0, 0.0, 6.95, 2.97, 2.28, 2.17, 2.69, 2.54, 3.6, 4.46, 2.54, 1.58, 1.4, 1.2, -0.0, -0.0, -0.0, -0.0, -0.0, -0.0, 10.28, 10.28, 10.28, 0.0, 0.0, 12.07, 8.85, 1.77, 2.94, 11.65, 28.61, 24.59, 4.34, 3.47, -0.0, -10.6, -10.4, -6.45, -0.0, -9.67, -8.94, -8.23, -8.23, -8.23, -12.25, -12.25, -12.25, -12.08, -12.08, -12.08, -12.08, -12.47, -12.64, -12.64, -12.64, -12.64, -13.04, -13.04, -13.04, -13.04, -12.86, -13.59, -13.59, -13.41, -13.41, -13.41, -13.2, -13.59, -13.38, -13.38, -13.13, -12.74, -12.74, -12.45, -12.07, -12.56, -12.56, -12.79, -12.39, -12.87, -13.27, -12.72, -13.09, -12.58, -12.86, -12.96, -12.52, -12.52, -12.52, -12.52, -11.91, -11.84, -11.71, -11.71, -11.45, -5.2, -0.0, -0.0, -0.0, 0.0, 9.83, 6.95, 2.97, 2.17, 2.83, 2.69, 2.54, 4.46, 4.46, 2.69, 2.06, 1.4, -0.0, -0.0, -0.0, -0.0, -0.0, 6.95, 8.8, 9.83, 9.83, 10.28, 0.0, 11.62, 2.54, -0.0, -0.0, -0.0, 0.0, 0.0, 13.59, 10.19, 7.78, -0.0, -2.28, -5.2, -10.04, -11.03, -10.0, -8.94, -8.94, -8.94, -12.25, -12.25, -12.08, -12.08, -12.08, -12.08, -12.08, -12.08, -12.08, -12.64, -12.64, -13.04, -13.04, -13.04, -13.43, -13.43, -13.25, -13.59, -13.59, -13.41, -13.41, -13.41, -13.59, -13.59, -12.99, -13.38, -12.99, -12.74, -12.36, -12.36, -12.36, -12.56, -12.56, -12.62, -12.39, -12.87, -12.85, -12.72, -13.09, -12.66, -12.88, -12.86, -12.52, -12.52, -12.52, -12.52, -12.07, -11.84, -11.84, -11.71, -11.45, -5.2, -0.0, -0.0, -0.0, 0.0, 0.0, 6.95, 4.2, 2.83, 2.83, 2.69, 4.46, 4.71, 4.71, 4.71, 2.83, 2.17, -0.0, -0.0, -0.0, -0.0, -0.0, -0.0, 6.64, 6.64, 9.39, 9.39, 0.0, 11.62, 3.96, -0.0, -0.0, -0.0, -16.75, -19.6, 0.0, 12.96, 9.66, 3.36, -0.0, -7.78, -11.6, -12.3, -12.14, -11.2, -11.2, -11.2, -11.69, -11.69, -11.69, -12.08, -12.08, -12.08, -12.08, -12.08, -12.08, -12.64, -12.64, -13.04, -13.04, -13.43, -13.43, -13.43, -13.59, -13.59, -13.59, -13.41, -13.41, -13.37, -13.59, -13.59, -12.99, -12.99, -12.99, -12.36, -12.36, -12.36, -12.36, -12.79, -12.56, -12.62, -12.62, -12.45, -12.45, -12.85, -12.3, -12.66, -12.66, -12.88, -12.86, -12.52, -12.52, -12.52, -12.07, -12.07, -11.84, -11.71, -11.03, -7.9, -7.9, -0.0, -0.0, -0.0, 0.0, 0.0, 6.64, 6.32, 4.71, 4.71, 4.71, 4.71, 4.71, 4.71, 6.32, 6.32, 2.83, -0.0, -0.0, -0.0, -0.0, -0.0, -0.0, -0.0, 0.0, 9.83, 0.0, 0.0, 8.85, -0.0, -2.09, -3.24, -20.39, -24.79, -22.35, -0.0, 9.92, 5.23, -0.0, -6.6, -9.48, -12.72, -12.96, -12.96, -12.96, -12.96, -11.69, -11.69, -11.69, -11.69, -11.69, -12.08, -12.08, -12.08, -12.08, -12.64, -12.64, -13.04, -13.04, -13.43, -13.43, -13.43, -13.59, -13.59, -13.59, -13.41, -13.02, -13.37, -13.77, -13.59, -13.19, -12.99, -12.6, -12.6, -12.36, -12.36, -12.36, -12.79, -12.39, -12.62, -13.02, -12.6, -12.45, -12.42, -12.3, -12.66, -12.66, -12.66, -12.88, -12.86, -12.52, -12.52, -12.07, -12.07, -12.07, -11.71, -11.03, -7.9, -7.9, -0.0, -0.0, -0.0, 0.0, 0.0, 9.39, 8.0, 6.32, 7.07, 7.07, 6.01, 6.01, 6.01, 6.32, 6.32, 6.32, 2.83, -0.0, -0.0, -0.0, -0.0, -0.0, -0.0, 9.83, 9.83, 0.0, 0.0, 12.07, -0.0, -2.02, -5.81, -17.48, -26.29, -18.23, -20.56, -0.0, -0.0, -0.0, -5.23, -10.43, -12.96, -11.6, -4.1, -4.1, -4.1, -11.69, -11.69, -11.69, -11.69, -11.69, -11.69, -11.69, -12.08, -12.08, -12.64, -12.64, -13.04, -13.04, -13.04, -13.04, -13.35, -13.19, -13.19, -13.19, -13.19, -13.02, -13.37, -13.37, -13.19, -13.19, -12.79, -12.6, -12.6, -12.6, -12.6, -12.36, -12.39, -12.39, -12.62, -12.21, -12.6, -12.45, -12.04, -12.42, -12.42, -12.66, -12.66, -12.66, -12.44, -12.42, -12.52, -12.07, -12.07, -12.07, -11.62, -11.03, -11.18, -11.18, -7.59, -0.0, -0.0, 0.0, 0.0, 0.0, 6.64, 6.32, 7.07, 7.07, 6.01, 6.01, 6.01, 6.32, 6.32, 6.32, 4.0, -0.0, -0.0, 4.2, 5.2, 4.2, 6.95, 6.95, 9.83, 10.28, 7.59, 8.22, 4.1, -2.72, -7.59, -15.02, -25.03, -20.09, -11.65, -9.2, 0.0, 0.0, 0.0, 0.0, 0.0, 0.0, 0.0, 0.0, 0.0, -11.69, -11.69, -11.69, -11.69, -11.69, -11.69, -11.69, -12.08, -12.08, -12.64, -12.64, -13.04, -13.04, -13.04, -13.04, -13.35, -13.19, -13.19, -13.19, -13.19, -13.02, -13.37, -13.37, -13.19, -13.19, -12.79, -12.6, -12.6, -12.6, -12.6, -12.36, -12.39, -12.39, -12.62, -12.21, -12.6, -12.45, -12.04, -12.42, -12.42, -12.66, -12.66, -12.66, -12.44, -12.42, -12.52, -12.07, -12.07, -12.07, -11.62, -11.03, -11.18, -11.18, -7.59, -0.0, -0.0, 0.0, 0.0, 0.0, 6.64, 6.32, 7.07, 7.07, 6.01, 6.01, 6.01, 6.32, 6.32, 6.32, 4.0, -0.0, -0.0, 4.2, 5.2, 4.2, 6.95, 9.83, 9.83, 10.28, 7.59, 8.22, 8.85, -0.0, -7.93, -13.39, -20.12, -16.75, -5.1, 0.0, 3.45, 3.31, 3.16, 2.87, 2.57, 0.0, 0.0, 0.0, 0.0]}]